Time,TemperatureF,DewpointF,PressureIn,WindDirection,WindDirectionDegrees,WindSpeedMPH,WindSpeedGustMPH,Humidity,HourlyPrecipIn,Conditions,Clouds,dailyrainin,SoftwareType,DateUTC
2013-09-30 00:00:00,57.7,38.2,30.00,SSE,158,0.0,0.0,48,0.00,,CLR,0.00,VWS V14.01,2013-09-30 05:00:00,
2013-09-30 00:02:00,57.5,38.0,30.00,SSE,158,0.0,0.0,48,0.00,,CLR,0.00,VWS V14.01,2013-09-30 05:02:00,
2013-09-30 00:03:00,57.5,38.0,29.99,SSE,158,0.0,0.0,48,0.00,,CLR,0.00,VWS V14.01,2013-09-30 05:03:00,
2013-09-30 00:05:00,57.5,38.0,29.99,SSE,158,0.0,0.0,48,0.00,,CLR,0.00,VWS V14.01,2013-09-30 05:05:00,
2013-09-30 00:06:00,57.5,38.0,29.99,SSE,158,0.0,0.0,48,0.00,,CLR,0.00,VWS V14.01,2013-09-30 05:06:00,
2013-09-30 00:07:00,57.5,37.5,30.00,SSE,158,0.0,0.0,47,0.00,,CLR,0.00,VWS V14.01,2013-09-30 05:07:00,
2013-09-30 00:10:00,57.5,38.0,30.00,SSE,158,0.0,0.0,48,0.00,,CLR,0.00,VWS V14.01,2013-09-30 05:10:00,
2013-09-30 00:11:00,57.3,37.8,30.00,SSE,158,0.0,0.0,48,0.00,,CLR,0.00,VWS V14.01,2013-09-30 05:11:00,
2013-09-30 00:12:00,57.3,37.8,30.00,SSE,158,0.0,0.0,48,0.00,,CLR,0.00,VWS V14.01,2013-09-30 05:12:00,
2013-09-30 00:13:00,57.3,37.8,30.00,SSE,158,0.0,0.0,48,0.00,,CLR,0.00,VWS V14.01,2013-09-30 05:13:00,
2013-09-30 00:15:00,57.3,37.8,29.99,SSE,158,0.0,0.0,48,0.00,,CLR,0.00,VWS V14.01,2013-09-30 05:15:00,
2013-09-30 00:18:00,57.3,37.8,29.99,SSE,158,0.0,0.0,48,0.00,,CLR,0.00,VWS V14.01,2013-09-30 05:18:00,
2013-09-30 00:19:00,57.2,37.7,29.99,SSE,158,0.0,0.0,48,0.00,,CLR,0.00,VWS V14.01,2013-09-30 05:19:00,
2013-09-30 00:20:00,57.2,37.7,29.99,SSE,158,0.0,0.0,48,0.00,,CLR,0.00,VWS V14.01,2013-09-30 05:20:00,
2013-09-30 00:21:00,57.2,37.7,29.99,SSE,158,0.0,0.0,48,0.00,,CLR,0.00,VWS V14.01,2013-09-30 05:21:00,
2013-09-30 00:24:00,57.0,37.5,29.99,SSE,158,0.0,0.0,48,0.00,,CLR,0.00,VWS V14.01,2013-09-30 05:24:00,
2013-09-30 00:26:00,57.0,37.5,29.98,SSE,158,0.0,0.0,48,0.00,,CLR,0.00,VWS V14.01,2013-09-30 05:26:00,
2013-09-30 00:27:00,57.0,37.5,29.99,SSE,158,0.0,0.0,48,0.00,,CLR,0.00,VWS V14.01,2013-09-30 05:27:00,
2013-09-30 00:29:00,57.0,37.5,29.99,SSE,158,0.0,0.0,48,0.00,,CLR,0.00,VWS V14.01,2013-09-30 05:29:00,
2013-09-30 00:31:00,57.0,37.5,29.99,SSE,158,0.0,0.0,48,0.00,,CLR,0.00,VWS V14.01,2013-09-30 05:31:00,
2013-09-30 00:32:00,57.0,37.5,29.99,SSE,158,0.0,0.0,48,0.00,,CLR,0.00,VWS V14.01,2013-09-30 05:32:00,
2013-09-30 00:33:00,56.8,37.3,29.99,SSE,158,0.0,0.0,48,0.00,,CLR,0.00,VWS V14.01,2013-09-30 05:33:00,
2013-09-30 00:36:00,56.8,37.3,30.00,SSE,158,0.0,0.0,48,0.00,,CLR,0.00,VWS V14.01,2013-09-30 05:36:00,
2013-09-30 00:38:00,56.8,37.3,29.99,SSE,158,0.0,0.0,48,0.00,,CLR,0.00,VWS V14.01,2013-09-30 05:38:00,
2013-09-30 00:39:00,56.8,37.3,29.99,SSE,158,0.0,0.0,48,0.00,,CLR,0.00,VWS V14.01,2013-09-30 05:39:00,
2013-09-30 00:41:00,56.6,37.7,29.99,SSE,158,0.0,0.0,49,0.00,,CLR,0.00,VWS V14.01,2013-09-30 05:41:00,
2013-09-30 00:43:00,56.6,37.7,29.99,North,0,0.0,0.0,49,0.00,,CLR,0.00,VWS V14.01,2013-09-30 05:43:00,
2013-09-30 00:44:00,56.6,37.7,29.99,SSE,158,0.0,0.0,49,0.00,,CLR,0.00,VWS V14.01,2013-09-30 05:44:00,
2013-09-30 00:45:00,56.6,37.7,29.98,SSE,158,0.0,0.0,49,0.00,,CLR,0.00,VWS V14.01,2013-09-30 05:45:00,
2013-09-30 00:46:00,56.6,37.7,29.99,SSE,158,0.0,0.0,49,0.00,,CLR,0.00,VWS V14.01,2013-09-30 05:46:00,
2013-09-30 00:49:00,56.4,38.0,29.99,SSE,158,0.0,0.0,50,0.00,,CLR,0.00,VWS V14.01,2013-09-30 05:49:00,
2013-09-30 00:50:00,56.6,38.2,29.99,SSE,158,0.0,0.0,50,0.00,,CLR,0.00,VWS V14.01,2013-09-30 05:50:00,
2013-09-30 00:55:00,56.3,38.4,29.99,SSE,158,0.0,0.0,51,0.00,,CLR,0.00,VWS V14.01,2013-09-30 05:55:00,
2013-09-30 00:56:00,56.1,38.2,29.98,SSE,158,0.0,0.0,51,0.00,,CLR,0.00,VWS V14.01,2013-09-30 05:56:00,
2013-09-30 00:57:00,56.1,38.7,29.99,SSE,158,0.0,0.0,52,0.00,,CLR,0.00,VWS V14.01,2013-09-30 05:57:00,
2013-09-30 01:00:00,56.1,38.7,29.98,SSE,158,0.0,0.0,52,0.00,,CLR,0.00,VWS V14.01,2013-09-30 06:00:00,
2013-09-30 01:01:00,56.1,38.7,29.98,SSE,158,0.0,0.0,52,0.00,,CLR,0.00,VWS V14.01,2013-09-30 06:01:00,
2013-09-30 01:02:00,56.1,38.7,29.98,SSE,158,0.0,0.0,52,0.00,,CLR,0.00,VWS V14.01,2013-09-30 06:02:00,
2013-09-30 01:04:00,56.1,38.7,29.98,SSE,158,0.0,0.0,52,0.00,,CLR,0.00,VWS V14.01,2013-09-30 06:04:00,
2013-09-30 01:05:00,56.1,38.7,29.98,SSE,158,0.0,0.0,52,0.00,,CLR,0.00,VWS V14.01,2013-09-30 06:05:00,
2013-09-30 01:07:00,56.1,38.7,29.98,SSE,158,0.0,0.0,52,0.00,,CLR,0.00,VWS V14.01,2013-09-30 06:07:00,
2013-09-30 01:09:00,56.1,38.7,29.98,SSE,158,0.0,0.0,52,0.00,,CLR,0.00,VWS V14.01,2013-09-30 06:09:00,
2013-09-30 01:11:00,55.5,39.1,29.98,SSE,158,0.0,0.0,54,0.00,,CLR,0.00,VWS V14.01,2013-09-30 06:11:00,
2013-09-30 01:12:00,55.5,39.1,29.98,SSE,158,0.0,0.0,54,0.00,,CLR,0.00,VWS V14.01,2013-09-30 06:12:00,
2013-09-30 01:14:00,55.5,39.1,29.98,SSE,158,0.0,0.0,54,0.00,,CLR,0.00,VWS V14.01,2013-09-30 06:14:00,
2013-09-30 01:16:00,55.5,39.6,29.98,SSE,158,0.0,0.0,55,0.00,,CLR,0.00,VWS V14.01,2013-09-30 06:16:00,
2013-09-30 01:18:00,55.5,39.6,29.99,SSE,158,0.0,0.0,55,0.00,,CLR,0.00,VWS V14.01,2013-09-30 06:18:00,
2013-09-30 01:20:00,55.5,40.1,29.99,SSE,158,0.0,0.0,56,0.00,,CLR,0.00,VWS V14.01,2013-09-30 06:20:00,
2013-09-30 01:21:00,55.5,40.1,29.99,SSE,158,0.0,0.0,56,0.00,,CLR,0.00,VWS V14.01,2013-09-30 06:21:00,
2013-09-30 01:22:00,55.5,39.6,29.98,SSE,158,0.0,0.0,55,0.00,,CLR,0.00,VWS V14.01,2013-09-30 06:22:00,
2013-09-30 01:26:00,55.5,39.1,29.98,SSE,158,0.0,0.0,54,0.00,,CLR,0.00,VWS V14.01,2013-09-30 06:26:00,
2013-09-30 01:30:00,55.7,38.8,29.98,SSE,158,0.0,0.0,53,0.00,,CLR,0.00,VWS V14.01,2013-09-30 06:30:00,
2013-09-30 01:31:00,55.9,38.5,29.98,SSE,158,0.0,0.0,52,0.00,,CLR,0.00,VWS V14.01,2013-09-30 06:31:00,
2013-09-30 01:33:00,55.9,38.5,29.98,SSE,158,0.0,0.0,52,0.00,,CLR,0.00,VWS V14.01,2013-09-30 06:33:00,
2013-09-30 01:35:00,55.9,38.5,29.99,SSE,158,0.0,0.0,52,0.00,,CLR,0.00,VWS V14.01,2013-09-30 06:35:00,
2013-09-30 01:36:00,56.1,38.7,29.98,SSE,158,0.0,0.0,52,0.00,,CLR,0.00,VWS V14.01,2013-09-30 06:36:00,
2013-09-30 01:38:00,56.1,38.2,29.98,SSE,158,0.0,0.0,51,0.00,,CLR,0.00,VWS V14.01,2013-09-30 06:38:00,
2013-09-30 01:39:00,56.1,38.2,29.98,SSE,158,0.0,0.0,51,0.00,,CLR,0.00,VWS V14.01,2013-09-30 06:39:00,
2013-09-30 01:41:00,56.1,38.2,29.98,SSE,158,0.0,0.0,51,0.00,,CLR,0.00,VWS V14.01,2013-09-30 06:41:00,
2013-09-30 01:42:00,56.1,38.2,29.98,SSE,158,0.0,0.0,51,0.00,,CLR,0.00,VWS V14.01,2013-09-30 06:42:00,
2013-09-30 01:45:00,56.1,38.2,29.98,SSE,158,0.0,0.0,51,0.00,,CLR,0.00,VWS V14.01,2013-09-30 06:45:00,
2013-09-30 01:46:00,56.1,38.2,29.98,SSE,158,0.0,0.0,51,0.00,,CLR,0.00,VWS V14.01,2013-09-30 06:46:00,
2013-09-30 01:47:00,56.1,38.2,29.98,SSE,158,0.0,0.0,51,0.00,,CLR,0.00,VWS V14.01,2013-09-30 06:47:00,
2013-09-30 01:48:00,56.1,38.2,29.97,SSE,158,0.0,0.0,51,0.00,,CLR,0.00,VWS V14.01,2013-09-30 06:48:00,
2013-09-30 01:50:00,56.1,38.2,29.98,SSE,158,0.0,0.0,51,0.00,,CLR,0.00,VWS V14.01,2013-09-30 06:50:00,
2013-09-30 01:52:00,56.1,38.2,29.98,SSE,158,0.0,0.0,51,0.00,,CLR,0.00,VWS V14.01,2013-09-30 06:52:00,
2013-09-30 01:54:00,56.1,38.2,29.98,SSE,158,0.0,0.0,51,0.00,,CLR,0.00,VWS V14.01,2013-09-30 06:54:00,
2013-09-30 01:56:00,56.1,38.2,29.98,SSE,158,0.0,0.0,51,0.00,,CLR,0.00,VWS V14.01,2013-09-30 06:56:00,
2013-09-30 01:57:00,56.1,38.2,29.98,SSE,158,0.0,0.0,51,0.00,,CLR,0.00,VWS V14.01,2013-09-30 06:57:00,
2013-09-30 01:58:00,56.1,38.2,29.98,SSE,158,0.0,0.0,51,0.00,,CLR,0.00,VWS V14.01,2013-09-30 06:58:00,
2013-09-30 01:59:00,56.1,38.2,29.98,SSE,158,0.0,0.0,51,0.00,,CLR,0.00,VWS V14.01,2013-09-30 06:59:00,
2013-09-30 02:02:00,56.1,38.2,29.97,SSE,158,0.0,0.0,51,0.00,,CLR,0.00,VWS V14.01,2013-09-30 07:02:00,
2013-09-30 02:03:00,56.1,38.2,29.97,SSE,158,0.0,0.0,51,0.00,,CLR,0.00,VWS V14.01,2013-09-30 07:03:00,
2013-09-30 02:04:00,56.1,38.2,29.97,SSE,158,0.0,0.0,51,0.00,,CLR,0.00,VWS V14.01,2013-09-30 07:04:00,
2013-09-30 02:07:00,56.1,38.2,29.97,SSE,158,0.0,0.0,51,0.00,,CLR,0.00,VWS V14.01,2013-09-30 07:07:00,
2013-09-30 02:09:00,56.1,38.2,29.97,SSE,158,0.0,0.0,51,0.00,,CLR,0.00,VWS V14.01,2013-09-30 07:09:00,
2013-09-30 02:11:00,55.7,38.4,29.98,SSE,158,0.0,0.0,52,0.00,,CLR,0.00,VWS V14.01,2013-09-30 07:11:00,
2013-09-30 02:13:00,55.7,38.4,29.98,SSE,158,0.0,0.0,52,0.00,,CLR,0.00,VWS V14.01,2013-09-30 07:13:00,
2013-09-30 02:15:00,55.5,38.2,29.98,SSE,158,0.0,0.0,52,0.00,,CLR,0.00,VWS V14.01,2013-09-30 07:15:00,
2013-09-30 02:17:00,55.5,38.2,29.97,SSE,158,0.0,0.0,52,0.00,,CLR,0.00,VWS V14.01,2013-09-30 07:17:00,
2013-09-30 02:19:00,55.5,38.2,29.97,SSE,158,0.0,0.0,52,0.00,,CLR,0.00,VWS V14.01,2013-09-30 07:19:00,
2013-09-30 02:21:00,55.5,38.2,29.97,SSE,158,0.0,0.0,52,0.00,,CLR,0.00,VWS V14.01,2013-09-30 07:21:00,
2013-09-30 02:25:00,55.5,38.2,29.97,SSE,158,0.0,0.0,52,0.00,,CLR,0.00,VWS V14.01,2013-09-30 07:25:00,
2013-09-30 02:27:00,55.4,38.1,29.97,SSE,158,0.0,0.0,52,0.00,,CLR,0.00,VWS V14.01,2013-09-30 07:27:00,
2013-09-30 02:31:00,55.5,38.2,29.97,SSE,158,0.0,0.0,52,0.00,,CLR,0.00,VWS V14.01,2013-09-30 07:31:00,
2013-09-30 02:32:00,55.5,38.2,29.97,SSE,158,0.0,0.0,52,0.00,,CLR,0.00,VWS V14.01,2013-09-30 07:32:00,
2013-09-30 02:33:00,55.5,38.2,29.97,SSE,158,0.0,0.0,52,0.00,,CLR,0.00,VWS V14.01,2013-09-30 07:33:00,
2013-09-30 02:35:00,55.5,38.2,29.97,SSE,158,0.0,0.0,52,0.00,,CLR,0.00,VWS V14.01,2013-09-30 07:35:00,
2013-09-30 02:37:00,55.4,38.1,29.97,North,0,0.0,0.0,52,0.00,,CLR,0.00,VWS V14.01,2013-09-30 07:37:00,
2013-09-30 02:38:00,55.2,38.4,29.97,SSE,158,0.0,0.0,53,0.00,,CLR,0.00,VWS V14.01,2013-09-30 07:38:00,
2013-09-30 02:39:00,55.0,38.2,29.97,SSE,158,0.0,0.0,53,0.00,,CLR,0.00,VWS V14.01,2013-09-30 07:39:00,
2013-09-30 02:40:00,55.0,38.2,29.97,SSE,158,0.0,0.0,53,0.00,,CLR,0.00,VWS V14.01,2013-09-30 07:40:00,
2013-09-30 02:43:00,55.0,38.2,29.97,SSE,158,0.0,0.0,53,0.00,,CLR,0.00,VWS V14.01,2013-09-30 07:43:00,
2013-09-30 02:45:00,54.8,38.0,29.97,SSE,158,0.0,0.0,53,0.00,,CLR,0.00,VWS V14.01,2013-09-30 07:45:00,
2013-09-30 02:47:00,54.6,38.3,29.97,SSE,158,0.0,0.0,54,0.00,,CLR,0.00,VWS V14.01,2013-09-30 07:47:00,
2013-09-30 02:48:00,54.5,38.2,29.97,SSE,158,0.0,0.0,54,0.00,,CLR,0.00,VWS V14.01,2013-09-30 07:48:00,
2013-09-30 02:50:00,54.3,38.0,29.96,SSE,158,0.0,0.0,54,0.00,,CLR,0.00,VWS V14.01,2013-09-30 07:50:00,
2013-09-30 02:51:00,54.3,38.0,29.97,SSE,158,0.0,0.0,54,0.00,,CLR,0.00,VWS V14.01,2013-09-30 07:51:00,
2013-09-30 02:55:00,54.3,38.5,29.97,SSE,158,0.0,0.0,55,0.00,,CLR,0.00,VWS V14.01,2013-09-30 07:55:00,
2013-09-30 02:56:00,54.3,39.0,29.97,SSE,158,0.0,0.0,56,0.00,,CLR,0.00,VWS V14.01,2013-09-30 07:56:00,
2013-09-30 02:59:00,54.3,39.0,29.96,SSE,158,0.0,0.0,56,0.00,,CLR,0.00,VWS V14.01,2013-09-30 07:59:00,
2013-09-30 03:00:00,54.1,38.8,29.97,SSE,158,0.0,0.0,56,0.00,,CLR,0.00,VWS V14.01,2013-09-30 08:00:00,
2013-09-30 03:01:00,54.1,38.8,29.97,SSE,158,0.0,0.0,56,0.00,,CLR,0.00,VWS V14.01,2013-09-30 08:01:00,
2013-09-30 03:03:00,54.1,38.8,29.96,SSE,158,0.0,0.0,56,0.00,,CLR,0.00,VWS V14.01,2013-09-30 08:03:00,
2013-09-30 03:05:00,54.1,39.2,29.96,SSE,158,0.0,0.0,57,0.00,,CLR,0.00,VWS V14.01,2013-09-30 08:05:00,
2013-09-30 03:08:00,54.1,39.2,29.96,SSE,158,0.0,0.0,57,0.00,,CLR,0.00,VWS V14.01,2013-09-30 08:08:00,
2013-09-30 03:11:00,53.9,39.0,29.96,SSE,158,0.0,0.0,57,0.00,,CLR,0.00,VWS V14.01,2013-09-30 08:11:00,
2013-09-30 03:13:00,53.9,39.0,29.96,SSE,158,0.0,0.0,57,0.00,,CLR,0.00,VWS V14.01,2013-09-30 08:13:00,
2013-09-30 03:15:00,53.9,39.5,29.96,SSE,158,0.0,0.0,58,0.00,,CLR,0.00,VWS V14.01,2013-09-30 08:15:00,
2013-09-30 03:17:00,53.9,39.5,29.96,SSE,158,0.0,0.0,58,0.00,,CLR,0.00,VWS V14.01,2013-09-30 08:17:00,
2013-09-30 03:18:00,53.9,39.5,29.97,SSE,158,0.0,0.0,58,0.00,,CLR,0.00,VWS V14.01,2013-09-30 08:18:00,
2013-09-30 03:20:00,53.9,39.5,29.97,SSE,158,0.0,0.0,58,0.00,,CLR,0.00,VWS V14.01,2013-09-30 08:20:00,
2013-09-30 03:21:00,54.1,39.7,29.97,SSE,158,0.0,0.0,58,0.00,,CLR,0.00,VWS V14.01,2013-09-30 08:21:00,
2013-09-30 03:23:00,54.1,39.7,29.97,SSE,158,0.0,0.0,58,0.00,,CLR,0.00,VWS V14.01,2013-09-30 08:23:00,
2013-09-30 03:28:00,54.5,40.0,29.97,SSE,158,0.0,0.0,58,0.00,,CLR,0.00,VWS V14.01,2013-09-30 08:28:00,
2013-09-30 03:29:00,54.5,39.6,29.97,SSE,158,0.0,0.0,57,0.00,,CLR,0.00,VWS V14.01,2013-09-30 08:29:00,
2013-09-30 03:30:00,54.6,39.7,29.97,SSE,158,0.0,0.0,57,0.00,,CLR,0.00,VWS V14.01,2013-09-30 08:30:00,
2013-09-30 03:32:00,54.6,39.7,29.97,SSE,158,0.0,0.0,57,0.00,,CLR,0.00,VWS V14.01,2013-09-30 08:32:00,
2013-09-30 03:33:00,54.6,39.7,29.97,SSE,158,0.0,0.0,57,0.00,,CLR,0.00,VWS V14.01,2013-09-30 08:33:00,
2013-09-30 03:35:00,54.6,39.7,29.97,SSE,158,0.0,0.0,57,0.00,,CLR,0.00,VWS V14.01,2013-09-30 08:35:00,
2013-09-30 03:37:00,54.8,39.9,29.98,SSE,158,0.0,0.0,57,0.00,,CLR,0.00,VWS V14.01,2013-09-30 08:37:00,
2013-09-30 03:38:00,54.8,39.9,29.97,SSE,158,0.0,0.0,57,0.00,,CLR,0.00,VWS V14.01,2013-09-30 08:38:00,
2013-09-30 03:41:00,54.8,39.9,29.98,SSE,158,0.0,0.0,57,0.00,,CLR,0.00,VWS V14.01,2013-09-30 08:41:00,
2013-09-30 03:43:00,54.6,39.7,29.98,SSE,158,0.0,0.0,57,0.00,,CLR,0.00,VWS V14.01,2013-09-30 08:43:00,
2013-09-30 03:46:00,54.3,39.8,29.98,SSE,158,0.0,0.0,58,0.00,,CLR,0.00,VWS V14.01,2013-09-30 08:46:00,
2013-09-30 03:48:00,54.1,39.7,29.98,SSE,158,0.0,0.0,58,0.00,,CLR,0.00,VWS V14.01,2013-09-30 08:48:00,
2013-09-30 03:49:00,53.9,39.5,29.98,SSE,158,0.0,0.0,58,0.00,,CLR,0.00,VWS V14.01,2013-09-30 08:49:00,
2013-09-30 03:51:00,53.7,39.3,29.98,SSE,158,0.0,0.0,58,0.00,,CLR,0.00,VWS V14.01,2013-09-30 08:51:00,
2013-09-30 03:53:00,53.6,39.6,29.98,SSE,158,0.0,0.0,59,0.00,,CLR,0.00,VWS V14.01,2013-09-30 08:53:00,
2013-09-30 03:54:00,53.6,39.6,29.98,SSE,158,0.0,0.0,59,0.00,,CLR,0.00,VWS V14.01,2013-09-30 08:54:00,
2013-09-30 03:55:00,53.4,39.5,29.98,SSE,158,0.0,0.0,59,0.00,,CLR,0.00,VWS V14.01,2013-09-30 08:55:00,
2013-09-30 03:58:00,53.4,39.9,29.98,SSE,158,0.0,0.0,60,0.00,,CLR,0.00,VWS V14.01,2013-09-30 08:58:00,
2013-09-30 03:59:00,53.2,39.7,29.98,SSE,158,0.0,0.0,60,0.00,,CLR,0.00,VWS V14.01,2013-09-30 08:59:00,
2013-09-30 04:01:00,53.2,39.7,29.98,SSE,158,0.0,0.0,60,0.00,,CLR,0.00,VWS V14.01,2013-09-30 09:01:00,
2013-09-30 04:05:00,53.2,40.1,29.98,SSE,158,0.0,0.0,61,0.00,,CLR,0.00,VWS V14.01,2013-09-30 09:05:00,
2013-09-30 04:06:00,53.2,40.1,29.98,SSE,158,0.0,0.0,61,0.00,,CLR,0.00,VWS V14.01,2013-09-30 09:06:00,
2013-09-30 04:07:00,53.2,40.1,29.98,SSE,158,0.0,0.0,61,0.00,,CLR,0.00,VWS V14.01,2013-09-30 09:07:00,
2013-09-30 04:10:00,53.0,39.9,29.98,SSE,158,0.0,0.0,61,0.00,,CLR,0.00,VWS V14.01,2013-09-30 09:10:00,
2013-09-30 04:11:00,53.0,39.9,29.98,SSE,158,0.0,0.0,61,0.00,,CLR,0.00,VWS V14.01,2013-09-30 09:11:00,
2013-09-30 04:12:00,53.0,39.9,29.98,SSE,158,0.0,0.0,61,0.00,,CLR,0.00,VWS V14.01,2013-09-30 09:12:00,
2013-09-30 04:15:00,53.0,40.3,29.98,SSE,158,0.0,0.0,62,0.00,,CLR,0.00,VWS V14.01,2013-09-30 09:15:00,
2013-09-30 04:17:00,53.0,40.3,29.98,SSE,158,0.0,0.0,62,0.00,,CLR,0.00,VWS V14.01,2013-09-30 09:17:00,
2013-09-30 04:18:00,53.0,40.3,29.98,SSE,158,0.0,0.0,62,0.00,,CLR,0.00,VWS V14.01,2013-09-30 09:18:00,
2013-09-30 04:19:00,53.0,40.3,29.98,SSE,158,0.0,0.0,62,0.00,,CLR,0.00,VWS V14.01,2013-09-30 09:19:00,
2013-09-30 04:21:00,53.0,40.3,29.98,SSE,158,0.0,0.0,62,0.00,,CLR,0.00,VWS V14.01,2013-09-30 09:21:00,
2013-09-30 04:23:00,53.2,40.5,29.98,SSE,158,0.0,0.0,62,0.00,,CLR,0.00,VWS V14.01,2013-09-30 09:23:00,
2013-09-30 04:27:00,53.2,40.5,29.98,SSE,158,0.0,0.0,62,0.00,,CLR,0.00,VWS V14.01,2013-09-30 09:27:00,
2013-09-30 04:28:00,53.2,40.5,29.98,SSE,158,0.0,0.0,62,0.00,,CLR,0.00,VWS V14.01,2013-09-30 09:28:00,
2013-09-30 04:29:00,53.2,40.5,29.98,SSE,158,0.0,0.0,62,0.00,,CLR,0.00,VWS V14.01,2013-09-30 09:29:00,
2013-09-30 04:33:00,53.0,40.3,29.98,SSE,158,0.0,0.0,62,0.00,,CLR,0.00,VWS V14.01,2013-09-30 09:33:00,
2013-09-30 04:34:00,53.0,40.3,29.98,SSE,158,0.0,0.0,62,0.00,,CLR,0.00,VWS V14.01,2013-09-30 09:34:00,
2013-09-30 04:35:00,53.0,40.8,29.98,SSE,158,0.0,0.0,63,0.00,,CLR,0.00,VWS V14.01,2013-09-30 09:35:00,
2013-09-30 04:38:00,53.0,40.8,29.98,SSE,158,0.0,0.0,63,0.00,,CLR,0.00,VWS V14.01,2013-09-30 09:38:00,
2013-09-30 04:40:00,53.0,40.8,29.98,SSE,158,0.0,0.0,63,0.00,,CLR,0.00,VWS V14.01,2013-09-30 09:40:00,
2013-09-30 04:41:00,53.0,40.8,29.98,SSE,158,0.0,0.0,63,0.00,,CLR,0.00,VWS V14.01,2013-09-30 09:41:00,
2013-09-30 04:42:00,53.0,40.8,29.98,SSE,158,0.0,0.0,63,0.00,,CLR,0.00,VWS V14.01,2013-09-30 09:42:00,
2013-09-30 04:43:00,53.0,40.8,29.98,SSE,158,0.0,0.0,63,0.00,,CLR,0.00,VWS V14.01,2013-09-30 09:43:00,
2013-09-30 04:45:00,53.0,40.8,29.98,SSE,158,0.0,0.0,63,0.00,,CLR,0.00,VWS V14.01,2013-09-30 09:45:00,
2013-09-30 04:47:00,53.2,41.0,29.98,SSE,158,0.0,0.0,63,0.00,,CLR,0.00,VWS V14.01,2013-09-30 09:47:00,
2013-09-30 04:48:00,53.2,41.0,29.98,SSE,158,0.0,0.0,63,0.00,,CLR,0.00,VWS V14.01,2013-09-30 09:48:00,
2013-09-30 04:49:00,53.2,41.0,29.98,SSE,158,0.0,0.0,63,0.00,,CLR,0.00,VWS V14.01,2013-09-30 09:49:00,
2013-09-30 04:52:00,53.2,41.0,29.97,SSE,158,0.0,0.0,63,0.00,,CLR,0.00,VWS V14.01,2013-09-30 09:52:00,
2013-09-30 04:53:00,53.2,41.0,29.97,SSE,158,0.0,0.0,63,0.00,,CLR,0.00,VWS V14.01,2013-09-30 09:53:00,
2013-09-30 04:54:00,53.2,41.0,29.97,SSE,158,0.0,0.0,63,0.00,,CLR,0.00,VWS V14.01,2013-09-30 09:54:00,
2013-09-30 04:58:00,53.0,41.2,29.97,SSE,158,0.0,0.0,64,0.00,,CLR,0.00,VWS V14.01,2013-09-30 09:58:00,
2013-09-30 04:59:00,53.0,41.2,29.97,SSE,158,0.0,0.0,64,0.00,,CLR,0.00,VWS V14.01,2013-09-30 09:59:00,
2013-09-30 05:00:00,53.2,41.3,29.97,SSE,158,0.0,0.0,64,0.00,,CLR,0.00,VWS V14.01,2013-09-30 10:00:00,
2013-09-30 05:01:00,53.0,41.2,29.97,SSE,158,0.0,0.0,64,0.00,,CLR,0.00,VWS V14.01,2013-09-30 10:01:00,
2013-09-30 05:03:00,53.2,41.3,29.97,SSE,158,0.0,0.0,64,0.00,,CLR,0.00,VWS V14.01,2013-09-30 10:03:00,
2013-09-30 05:05:00,53.2,41.3,29.97,SSE,158,0.0,0.0,64,0.00,,CLR,0.00,VWS V14.01,2013-09-30 10:05:00,
2013-09-30 05:07:00,53.2,41.3,29.97,SSE,158,0.0,0.0,64,0.00,,CLR,0.00,VWS V14.01,2013-09-30 10:07:00,
2013-09-30 05:08:00,53.2,41.3,29.97,SSE,158,0.0,0.0,64,0.00,,CLR,0.00,VWS V14.01,2013-09-30 10:08:00,
2013-09-30 05:10:00,53.2,41.3,29.97,SSE,158,0.0,0.0,64,0.00,,CLR,0.00,VWS V14.01,2013-09-30 10:10:00,
2013-09-30 05:13:00,53.2,41.8,29.97,SSE,158,0.0,0.0,65,0.00,,CLR,0.00,VWS V14.01,2013-09-30 10:13:00,
2013-09-30 05:15:00,53.4,41.9,29.97,SSE,158,0.0,0.0,65,0.00,,CLR,0.00,VWS V14.01,2013-09-30 10:15:00,
2013-09-30 05:16:00,53.4,41.9,29.97,SSE,158,0.0,0.0,65,0.00,,CLR,0.00,VWS V14.01,2013-09-30 10:16:00,
2013-09-30 05:20:00,53.6,42.1,29.97,SSE,158,0.0,0.0,65,0.00,,CLR,0.00,VWS V14.01,2013-09-30 10:20:00,
2013-09-30 05:22:00,53.6,42.1,29.97,SSE,158,0.0,0.0,65,0.00,,CLR,0.00,VWS V14.01,2013-09-30 10:22:00,
2013-09-30 05:23:00,53.6,42.1,29.97,SSE,158,0.0,0.0,65,0.00,,CLR,0.00,VWS V14.01,2013-09-30 10:23:00,
2013-09-30 05:24:00,53.6,42.1,29.97,SSE,158,0.0,0.0,65,0.00,,CLR,0.00,VWS V14.01,2013-09-30 10:24:00,
2013-09-30 05:25:00,53.7,42.2,29.97,SSE,158,0.0,0.0,65,0.00,,CLR,0.00,VWS V14.01,2013-09-30 10:25:00,
2013-09-30 05:29:00,53.7,42.2,29.97,SSE,158,0.0,0.0,65,0.00,,CLR,0.00,VWS V14.01,2013-09-30 10:29:00,
2013-09-30 05:31:00,53.7,42.2,29.97,SSE,158,0.0,0.0,65,0.00,,CLR,0.00,VWS V14.01,2013-09-30 10:31:00,
2013-09-30 05:33:00,53.7,42.2,29.97,SSE,158,0.0,0.0,65,0.00,,CLR,0.00,VWS V14.01,2013-09-30 10:33:00,
2013-09-30 05:35:00,53.7,42.2,29.97,SSE,158,0.0,0.0,65,0.00,,CLR,0.00,VWS V14.01,2013-09-30 10:35:00,
2013-09-30 05:36:00,53.7,42.2,29.97,SSE,158,0.0,0.0,65,0.00,,CLR,0.00,VWS V14.01,2013-09-30 10:36:00,
2013-09-30 05:37:00,53.7,42.2,29.97,SSE,158,0.0,0.0,65,0.00,,CLR,0.00,VWS V14.01,2013-09-30 10:37:00,
2013-09-30 05:40:00,53.7,42.2,29.97,SSE,158,0.0,0.0,65,0.00,,CLR,0.00,VWS V14.01,2013-09-30 10:40:00,
2013-09-30 05:41:00,53.7,42.2,29.97,SSE,158,0.0,0.0,65,0.00,,CLR,0.00,VWS V14.01,2013-09-30 10:41:00,
2013-09-30 05:43:00,53.6,42.5,29.97,SSE,158,0.0,0.0,66,0.00,,CLR,0.00,VWS V14.01,2013-09-30 10:43:00,
2013-09-30 05:45:00,53.7,42.6,29.97,SSE,158,0.0,0.0,66,0.00,,CLR,0.00,VWS V14.01,2013-09-30 10:45:00,
2013-09-30 05:46:00,53.6,42.5,29.97,SSE,158,0.0,0.0,66,0.00,,CLR,0.00,VWS V14.01,2013-09-30 10:46:00,
2013-09-30 05:47:00,53.7,42.6,29.97,SSE,158,0.0,0.0,66,0.00,,CLR,0.00,VWS V14.01,2013-09-30 10:47:00,
2013-09-30 05:50:00,53.6,42.5,29.97,SSE,158,0.0,0.0,66,0.00,,CLR,0.00,VWS V14.01,2013-09-30 10:50:00,
2013-09-30 05:52:00,53.4,42.3,29.97,SSE,158,0.0,0.0,66,0.00,,CLR,0.00,VWS V14.01,2013-09-30 10:52:00,
2013-09-30 05:53:00,53.4,42.3,29.97,SSE,158,0.0,0.0,66,0.00,,CLR,0.00,VWS V14.01,2013-09-30 10:53:00,
2013-09-30 05:54:00,53.4,42.3,29.97,SSE,158,0.0,0.0,66,0.00,,CLR,0.00,VWS V14.01,2013-09-30 10:54:00,
2013-09-30 05:56:00,53.2,42.2,29.97,SSE,158,0.0,0.0,66,0.00,,CLR,0.00,VWS V14.01,2013-09-30 10:56:00,
2013-09-30 06:00:00,53.2,42.5,29.97,SSE,158,0.0,0.0,67,0.00,,CLR,0.00,VWS V14.01,2013-09-30 11:00:00,
2013-09-30 06:01:00,53.2,42.5,29.97,SSE,158,0.0,0.0,67,0.00,,CLR,0.00,VWS V14.01,2013-09-30 11:01:00,
2013-09-30 06:03:00,53.2,42.5,29.97,SSE,158,0.0,0.0,67,0.00,,CLR,0.00,VWS V14.01,2013-09-30 11:03:00,
2013-09-30 06:06:00,53.2,42.5,29.96,SSE,158,0.0,0.0,67,0.00,,CLR,0.00,VWS V14.01,2013-09-30 11:06:00,
2013-09-30 06:07:00,53.2,42.5,29.97,SSE,158,0.0,0.0,67,0.00,,CLR,0.00,VWS V14.01,2013-09-30 11:07:00,
2013-09-30 06:08:00,53.2,42.5,29.96,SSE,158,0.0,0.0,67,0.00,,CLR,0.00,VWS V14.01,2013-09-30 11:08:00,
2013-09-30 06:09:00,53.2,42.5,29.97,SSE,158,0.0,0.0,67,0.00,,CLR,0.00,VWS V14.01,2013-09-30 11:09:00,
2013-09-30 06:11:00,53.2,42.9,29.97,SSE,158,0.0,0.0,68,0.00,,CLR,0.00,VWS V14.01,2013-09-30 11:11:00,
2013-09-30 06:12:00,53.2,42.9,29.97,SSE,158,0.0,0.0,68,0.00,,CLR,0.00,VWS V14.01,2013-09-30 11:12:00,
2013-09-30 06:13:00,53.2,42.9,29.97,SSE,158,0.0,0.0,68,0.00,,CLR,0.00,VWS V14.01,2013-09-30 11:13:00,
2013-09-30 06:14:00,53.2,42.9,29.97,SSE,158,0.0,0.0,68,0.00,,CLR,0.00,VWS V14.01,2013-09-30 11:14:00,
2013-09-30 06:15:00,53.2,42.9,29.97,SSE,158,0.0,0.0,68,0.00,,CLR,0.00,VWS V14.01,2013-09-30 11:15:00,
2013-09-30 06:18:00,53.2,42.9,29.96,SSE,158,0.0,0.0,68,0.00,,CLR,0.00,VWS V14.01,2013-09-30 11:18:00,
2013-09-30 06:19:00,53.2,42.9,29.96,SSE,158,0.0,0.0,68,0.00,,CLR,0.00,VWS V14.01,2013-09-30 11:19:00,
2013-09-30 06:20:00,53.2,42.9,29.96,SSE,158,0.0,0.0,68,0.00,,CLR,0.00,VWS V14.01,2013-09-30 11:20:00,
2013-09-30 06:21:00,53.2,42.9,29.96,SSE,158,0.0,0.0,68,0.00,,CLR,0.00,VWS V14.01,2013-09-30 11:21:00,
2013-09-30 06:22:00,53.0,42.7,29.97,SSE,158,0.0,0.0,68,0.00,,CLR,0.00,VWS V14.01,2013-09-30 11:22:00,
2013-09-30 06:26:00,53.0,42.7,29.97,SSE,158,0.0,0.0,68,0.00,,CLR,0.00,VWS V14.01,2013-09-30 11:26:00,
2013-09-30 06:27:00,53.0,42.7,29.97,NNW,338,28.0,28.0,68,0.00,,CLR,0.00,VWS V14.01,2013-09-30 11:27:00,
2013-09-30 06:28:00,53.0,42.7,29.97,SSE,158,0.0,28.0,68,0.00,,CLR,0.00,VWS V14.01,2013-09-30 11:28:00,
2013-09-30 06:29:00,53.0,42.7,29.97,SSE,158,0.0,28.0,68,0.00,,CLR,0.00,VWS V14.01,2013-09-30 11:29:00,
2013-09-30 06:31:00,53.0,42.7,29.98,SSE,158,0.0,0.0,68,0.00,,CLR,0.00,VWS V14.01,2013-09-30 11:31:00,
2013-09-30 06:33:00,53.0,42.7,29.98,SSE,158,0.0,0.0,68,0.00,,CLR,0.00,VWS V14.01,2013-09-30 11:33:00,
2013-09-30 06:35:00,53.0,42.7,29.98,SSE,158,0.0,0.0,68,0.00,,CLR,0.00,VWS V14.01,2013-09-30 11:35:00,
2013-09-30 06:36:00,53.0,42.7,29.98,SSE,158,0.0,0.0,68,0.00,,CLR,0.00,VWS V14.01,2013-09-30 11:36:00,
2013-09-30 06:40:00,53.0,43.1,29.98,SSE,158,0.0,0.0,69,0.00,,CLR,0.00,VWS V14.01,2013-09-30 11:40:00,
2013-09-30 06:41:00,52.8,42.9,29.98,SSE,158,0.0,0.0,69,0.00,,CLR,0.00,VWS V14.01,2013-09-30 11:41:00,
2013-09-30 06:46:00,53.0,43.1,29.98,SSE,158,0.0,0.0,69,0.00,,CLR,0.00,VWS V14.01,2013-09-30 11:46:00,
2013-09-30 06:47:00,53.0,43.1,29.98,SSE,158,0.0,0.0,69,0.00,,CLR,0.00,VWS V14.01,2013-09-30 11:47:00,
2013-09-30 06:49:00,53.0,43.1,29.98,SSE,158,0.0,0.0,69,0.00,,CLR,0.00,VWS V14.01,2013-09-30 11:49:00,
2013-09-30 06:50:00,53.0,43.1,29.98,SSE,158,0.0,0.0,69,0.00,,CLR,0.00,VWS V14.01,2013-09-30 11:50:00,
2013-09-30 06:52:00,53.0,43.1,29.98,NNW,338,28.0,28.0,69,0.00,,CLR,0.00,VWS V14.01,2013-09-30 11:52:00,
2013-09-30 06:53:00,53.0,43.1,29.97,SSE,158,0.0,28.0,69,0.00,,CLR,0.00,VWS V14.01,2013-09-30 11:53:00,
2013-09-30 06:54:00,53.0,43.1,29.97,SSE,158,0.0,0.0,69,0.00,,CLR,0.00,VWS V14.01,2013-09-30 11:54:00,
2013-09-30 06:55:00,53.0,43.5,29.98,SSE,158,0.0,0.0,70,0.00,,CLR,0.00,VWS V14.01,2013-09-30 11:55:00,
2013-09-30 06:57:00,53.0,43.5,29.97,SSE,158,0.0,0.0,70,0.00,,CLR,0.00,VWS V14.01,2013-09-30 11:57:00,
2013-09-30 06:58:00,53.0,43.5,29.97,SSE,158,0.0,0.0,70,0.00,,CLR,0.00,VWS V14.01,2013-09-30 11:58:00,
2013-09-30 07:00:00,53.0,43.5,29.97,SSE,158,0.0,0.0,70,0.00,,CLR,0.00,VWS V14.01,2013-09-30 12:00:00,
2013-09-30 07:03:00,52.8,43.3,29.97,SSE,158,0.0,0.0,70,0.00,,CLR,0.00,VWS V14.01,2013-09-30 12:03:00,
2013-09-30 07:04:00,52.8,43.3,29.97,SSE,158,0.0,0.0,70,0.00,,CLR,0.00,VWS V14.01,2013-09-30 12:04:00,
2013-09-30 07:05:00,52.8,43.3,29.98,SSE,158,0.0,0.0,70,0.00,,CLR,0.00,VWS V14.01,2013-09-30 12:05:00,
2013-09-30 07:07:00,52.7,43.2,29.98,SSE,158,0.0,0.0,70,0.00,,CLR,0.00,VWS V14.01,2013-09-30 12:07:00,
2013-09-30 07:09:00,52.8,43.3,29.97,SSE,158,0.0,0.0,70,0.00,,CLR,0.00,VWS V14.01,2013-09-30 12:09:00,
2013-09-30 07:11:00,52.7,43.2,29.97,SSE,158,0.0,0.0,70,0.00,,CLR,0.00,VWS V14.01,2013-09-30 12:11:00,
2013-09-30 07:13:00,52.7,43.2,29.97,SSE,158,0.0,0.0,70,0.00,,CLR,0.00,VWS V14.01,2013-09-30 12:13:00,
2013-09-30 07:15:00,52.7,43.2,29.98,SSE,158,0.0,0.0,70,0.00,,CLR,0.00,VWS V14.01,2013-09-30 12:15:00,
2013-09-30 07:16:00,52.7,43.2,29.98,SSE,158,0.0,0.0,70,0.00,,CLR,0.00,VWS V14.01,2013-09-30 12:16:00,
2013-09-30 07:17:00,52.5,43.0,29.98,SSE,158,0.0,0.0,70,0.00,,CLR,0.00,VWS V14.01,2013-09-30 12:17:00,
2013-09-30 07:19:00,52.5,43.4,29.98,SSE,158,0.0,0.0,71,0.00,,CLR,0.00,VWS V14.01,2013-09-30 12:19:00,
2013-09-30 07:22:00,52.7,43.6,29.98,SSE,158,0.0,0.0,71,0.00,,CLR,0.00,VWS V14.01,2013-09-30 12:22:00,
2013-09-30 07:23:00,52.7,43.6,29.98,SSE,158,0.0,0.0,71,0.00,,CLR,0.00,VWS V14.01,2013-09-30 12:23:00,
2013-09-30 07:25:00,52.7,43.9,29.98,SSE,158,0.0,0.0,72,0.00,,CLR,0.00,VWS V14.01,2013-09-30 12:25:00,
2013-09-30 07:26:00,52.7,43.6,29.98,SSE,158,0.0,0.0,71,0.00,,CLR,0.00,VWS V14.01,2013-09-30 12:26:00,
2013-09-30 07:27:00,52.7,43.6,29.98,SSE,158,0.0,0.0,71,0.00,,CLR,0.00,VWS V14.01,2013-09-30 12:27:00,
2013-09-30 07:28:00,52.7,43.6,29.98,SSE,158,0.0,0.0,71,0.00,,CLR,0.00,VWS V14.01,2013-09-30 12:28:00,
2013-09-30 07:30:00,52.7,43.6,29.98,SSE,158,0.0,0.0,71,0.00,,CLR,0.00,VWS V14.01,2013-09-30 12:30:00,
2013-09-30 07:33:00,52.7,43.6,29.98,SSE,158,0.0,0.0,71,0.00,,CLR,0.00,VWS V14.01,2013-09-30 12:33:00,
2013-09-30 07:35:00,52.8,43.7,29.98,SSE,158,0.0,0.0,71,0.00,,CLR,0.00,VWS V14.01,2013-09-30 12:35:00,
2013-09-30 07:36:00,52.8,43.7,29.98,SSE,158,0.0,0.0,71,0.00,,CLR,0.00,VWS V14.01,2013-09-30 12:36:00,
2013-09-30 07:37:00,52.8,44.0,29.98,SSE,158,0.0,0.0,72,0.00,,CLR,0.00,VWS V14.01,2013-09-30 12:37:00,
2013-09-30 07:38:00,52.8,44.0,29.98,SSE,158,0.0,0.0,72,0.00,,CLR,0.00,VWS V14.01,2013-09-30 12:38:00,
2013-09-30 07:41:00,53.0,44.2,29.98,SSE,158,0.0,0.0,72,0.00,,CLR,0.00,VWS V14.01,2013-09-30 12:41:00,
2013-09-30 07:42:00,53.0,44.2,29.98,SSE,158,0.0,0.0,72,0.00,,CLR,0.00,VWS V14.01,2013-09-30 12:42:00,
2013-09-30 07:43:00,53.0,44.2,29.98,SSE,158,0.0,0.0,72,0.00,,CLR,0.00,VWS V14.01,2013-09-30 12:43:00,
2013-09-30 07:44:00,53.0,44.2,29.98,SSE,158,0.0,0.0,72,0.00,,CLR,0.00,VWS V14.01,2013-09-30 12:44:00,
2013-09-30 07:46:00,53.0,44.2,29.98,SSE,158,0.0,0.0,72,0.00,,CLR,0.00,VWS V14.01,2013-09-30 12:46:00,
2013-09-30 07:47:00,53.0,44.2,29.98,SSE,158,0.0,0.0,72,0.00,,CLR,0.00,VWS V14.01,2013-09-30 12:47:00,
2013-09-30 07:49:00,53.2,44.4,29.98,SSE,158,0.0,0.0,72,0.00,,CLR,0.00,VWS V14.01,2013-09-30 12:49:00,
2013-09-30 07:53:00,53.2,44.4,29.98,SSE,158,0.0,0.0,72,0.00,,CLR,0.00,VWS V14.01,2013-09-30 12:53:00,
2013-09-30 07:54:00,53.4,44.6,29.98,SSE,158,0.0,0.0,72,0.00,,CLR,0.00,VWS V14.01,2013-09-30 12:54:00,
2013-09-30 07:55:00,53.4,44.6,29.98,SSE,158,0.0,0.0,72,0.00,,CLR,0.00,VWS V14.01,2013-09-30 12:55:00,
2013-09-30 07:57:00,53.6,44.8,29.98,SSE,158,0.0,0.0,72,0.00,,CLR,0.00,VWS V14.01,2013-09-30 12:57:00,
2013-09-30 07:59:00,53.7,44.9,29.98,SSE,158,0.0,0.0,72,0.00,,CLR,0.00,VWS V14.01,2013-09-30 12:59:00,
2013-09-30 08:01:00,53.7,44.9,29.98,SSE,158,0.0,0.0,72,0.00,,CLR,0.00,VWS V14.01,2013-09-30 13:01:00,
2013-09-30 08:02:00,53.9,45.1,29.98,SSE,158,0.0,0.0,72,0.00,,CLR,0.00,VWS V14.01,2013-09-30 13:02:00,
2013-09-30 08:04:00,53.9,45.1,29.98,SSE,158,0.0,0.0,72,0.00,,CLR,0.00,VWS V14.01,2013-09-30 13:04:00,
2013-09-30 08:07:00,54.1,45.3,29.98,SSE,158,0.0,0.0,72,0.00,,CLR,0.00,VWS V14.01,2013-09-30 13:07:00,
2013-09-30 08:09:00,54.3,45.5,29.99,SSE,158,0.0,0.0,72,0.00,,CLR,0.00,VWS V14.01,2013-09-30 13:09:00,
2013-09-30 08:10:00,54.3,45.5,29.99,SSE,158,1.6,1.6,72,0.00,,CLR,0.00,VWS V14.01,2013-09-30 13:10:00,
2013-09-30 08:11:00,54.3,45.5,29.99,SSE,158,0.0,0.0,72,0.00,,CLR,0.00,VWS V14.01,2013-09-30 13:11:00,
2013-09-30 08:13:00,54.3,45.1,29.99,SSE,158,0.0,0.0,71,0.00,,CLR,0.00,VWS V14.01,2013-09-30 13:13:00,
2013-09-30 08:15:00,54.5,45.3,29.99,SSE,158,0.0,0.0,71,0.00,,CLR,0.00,VWS V14.01,2013-09-30 13:15:00,
2013-09-30 08:16:00,54.5,45.3,29.99,SSE,158,0.0,0.0,71,0.00,,CLR,0.00,VWS V14.01,2013-09-30 13:16:00,
2013-09-30 08:17:00,54.5,45.3,29.99,SSE,158,0.0,0.0,71,0.00,,CLR,0.00,VWS V14.01,2013-09-30 13:17:00,
2013-09-30 08:18:00,54.5,45.3,29.99,SSE,158,0.0,0.0,71,0.00,,CLR,0.00,VWS V14.01,2013-09-30 13:18:00,
2013-09-30 08:21:00,54.8,45.6,29.99,SSE,158,0.0,0.0,71,0.00,,CLR,0.00,VWS V14.01,2013-09-30 13:21:00,
2013-09-30 08:22:00,54.6,45.4,29.99,SSE,158,0.0,0.0,71,0.00,,CLR,0.00,VWS V14.01,2013-09-30 13:22:00,
2013-09-30 08:23:00,54.8,45.6,29.99,SSE,158,0.0,0.0,71,0.00,,CLR,0.00,VWS V14.01,2013-09-30 13:23:00,
2013-09-30 08:24:00,54.8,45.6,29.99,SSE,158,0.0,0.0,71,0.00,,CLR,0.00,VWS V14.01,2013-09-30 13:24:00,
2013-09-30 08:28:00,55.0,45.4,29.98,SSE,158,0.0,0.0,70,0.00,,CLR,0.00,VWS V14.01,2013-09-30 13:28:00,
2013-09-30 08:29:00,55.0,45.4,29.98,SSE,158,0.0,0.0,70,0.00,,CLR,0.00,VWS V14.01,2013-09-30 13:29:00,
2013-09-30 08:30:00,55.0,45.4,29.98,SSE,158,0.0,0.0,70,0.00,,CLR,0.00,VWS V14.01,2013-09-30 13:30:00,
2013-09-30 08:31:00,55.2,45.6,29.98,SSE,158,0.0,0.0,70,0.00,,CLR,0.00,VWS V14.01,2013-09-30 13:31:00,
2013-09-30 08:34:00,55.4,45.8,29.98,South,180,0.0,0.0,70,0.00,,CLR,0.00,VWS V14.01,2013-09-30 13:34:00,
2013-09-30 08:35:00,55.5,45.9,29.98,South,180,0.0,0.0,70,0.00,,CLR,0.00,VWS V14.01,2013-09-30 13:35:00,
2013-09-30 08:36:00,55.5,45.9,29.98,South,180,0.0,0.0,70,0.00,,CLR,0.00,VWS V14.01,2013-09-30 13:36:00,
2013-09-30 08:37:00,55.7,46.1,29.98,South,180,0.0,0.0,70,0.00,,CLR,0.00,VWS V14.01,2013-09-30 13:37:00,
2013-09-30 08:41:00,55.7,45.7,29.98,South,180,0.0,0.0,69,0.00,,CLR,0.00,VWS V14.01,2013-09-30 13:41:00,
2013-09-30 08:43:00,55.9,45.9,29.98,South,180,0.0,0.8,69,0.00,,CLR,0.00,VWS V14.01,2013-09-30 13:43:00,
2013-09-30 08:44:00,55.9,45.9,29.98,South,180,0.0,0.0,69,0.00,,CLR,0.00,VWS V14.01,2013-09-30 13:44:00,
2013-09-30 08:45:00,56.1,46.1,29.98,South,180,0.0,0.0,69,0.00,,CLR,0.00,VWS V14.01,2013-09-30 13:45:00,
2013-09-30 08:48:00,56.3,45.9,29.98,South,180,0.0,0.0,68,0.00,,CLR,0.00,VWS V14.01,2013-09-30 13:48:00,
2013-09-30 08:50:00,56.3,45.9,29.98,SE,135,4.0,4.0,68,0.00,,CLR,0.00,VWS V14.01,2013-09-30 13:50:00,
2013-09-30 08:51:00,56.4,46.0,29.98,SE,135,0.0,4.0,68,0.00,,CLR,0.00,VWS V14.01,2013-09-30 13:51:00,
2013-09-30 08:53:00,56.6,45.8,29.98,SSE,158,0.0,0.0,67,0.00,,CLR,0.00,VWS V14.01,2013-09-30 13:53:00,
2013-09-30 08:56:00,56.8,46.0,29.98,SSE,158,0.0,0.0,67,0.00,,CLR,0.00,VWS V14.01,2013-09-30 13:56:00,
2013-09-30 08:57:00,56.8,46.0,29.98,ESE,112,0.0,0.0,67,0.00,,CLR,0.00,VWS V14.01,2013-09-30 13:57:00,
2013-09-30 09:01:00,57.2,46.4,29.97,SSE,158,0.0,0.0,67,0.00,,CLR,0.00,VWS V14.01,2013-09-30 14:01:00,
2013-09-30 09:02:00,57.3,46.5,29.97,SSE,158,2.2,2.2,67,0.00,,CLR,0.00,VWS V14.01,2013-09-30 14:02:00,
2013-09-30 09:03:00,57.5,46.6,29.97,South,180,2.2,2.2,67,0.00,,CLR,0.00,VWS V14.01,2013-09-30 14:03:00,
2013-09-30 09:04:00,57.3,46.0,29.97,South,180,0.0,2.2,66,0.00,,CLR,0.00,VWS V14.01,2013-09-30 14:04:00,
2013-09-30 09:09:00,57.9,46.6,29.97,South,180,0.0,1.6,66,0.00,,CLR,0.00,VWS V14.01,2013-09-30 14:09:00,
2013-09-30 09:10:00,58.1,46.4,29.97,SSE,158,0.0,0.0,65,0.00,,CLR,0.00,VWS V14.01,2013-09-30 14:10:00,
2013-09-30 09:12:00,58.2,46.5,29.97,ESE,112,2.6,2.6,65,0.00,,CLR,0.00,VWS V14.01,2013-09-30 14:12:00,
2013-09-30 09:13:00,58.2,46.1,29.97,South,180,0.0,2.6,64,0.00,,CLR,0.00,VWS V14.01,2013-09-30 14:13:00,
2013-09-30 09:14:00,58.2,46.1,29.97,South,180,5.2,5.2,64,0.00,,CLR,0.00,VWS V14.01,2013-09-30 14:14:00,
2013-09-30 09:19:00,58.6,46.1,29.96,ESE,112,0.0,4.8,63,0.00,,CLR,0.00,VWS V14.01,2013-09-30 14:19:00,
2013-09-30 09:20:00,58.8,46.2,29.96,SE,135,0.0,0.0,63,0.00,,CLR,0.00,VWS V14.01,2013-09-30 14:20:00,
2013-09-30 09:21:00,59.1,46.5,29.96,South,180,0.0,0.0,63,0.00,,CLR,0.00,VWS V14.01,2013-09-30 14:21:00,
2013-09-30 09:25:00,59.3,46.7,29.96,SSE,158,0.0,1.2,63,0.00,,CLR,0.00,VWS V14.01,2013-09-30 14:25:00,
2013-09-30 09:26:00,59.5,46.9,29.96,SSE,158,3.4,3.4,63,0.00,,CLR,0.00,VWS V14.01,2013-09-30 14:26:00,
2013-09-30 09:27:00,59.3,46.7,29.96,SE,135,0.0,3.4,63,0.00,,CLR,0.00,VWS V14.01,2013-09-30 14:27:00,
2013-09-30 09:29:00,59.7,46.7,29.96,SSE,158,0.0,0.0,62,0.00,,CLR,0.00,VWS V14.01,2013-09-30 14:29:00,
2013-09-30 09:30:00,59.7,46.7,29.96,SSE,158,2.2,2.2,62,0.00,,CLR,0.00,VWS V14.01,2013-09-30 14:30:00,
2013-09-30 09:32:00,59.9,46.4,29.96,SSE,158,6.6,6.6,61,0.00,,CLR,0.00,VWS V14.01,2013-09-30 14:32:00,
2013-09-30 09:33:00,60.2,46.7,29.96,SSE,158,0.0,6.6,61,0.00,,CLR,0.00,VWS V14.01,2013-09-30 14:33:00,
2013-09-30 09:35:00,60.4,46.5,29.96,South,180,0.0,0.0,60,0.00,,CLR,0.00,VWS V14.01,2013-09-30 14:35:00,
2013-09-30 09:37:00,60.4,46.5,29.97,South,180,6.6,6.6,60,0.00,,CLR,0.00,VWS V14.01,2013-09-30 14:37:00,
2013-09-30 09:39:00,60.4,46.0,29.96,South,180,0.0,6.6,59,0.00,,CLR,0.00,VWS V14.01,2013-09-30 14:39:00,
2013-09-30 09:40:00,60.6,46.2,29.96,SSE,158,3.4,3.4,59,0.00,,CLR,0.00,VWS V14.01,2013-09-30 14:40:00,
2013-09-30 09:41:00,60.9,46.5,29.96,SSE,158,0.0,3.4,59,0.00,,CLR,0.00,VWS V14.01,2013-09-30 14:41:00,
2013-09-30 09:44:00,61.1,46.7,29.96,SSE,158,0.0,0.0,59,0.00,,CLR,0.00,VWS V14.01,2013-09-30 14:44:00,
2013-09-30 09:45:00,61.1,46.7,29.96,SSE,158,0.0,0.0,59,0.00,,CLR,0.00,VWS V14.01,2013-09-30 14:45:00,
2013-09-30 09:47:00,61.5,47.1,29.96,SSE,158,0.0,0.0,59,0.00,,CLR,0.00,VWS V14.01,2013-09-30 14:47:00,
2013-09-30 09:49:00,61.5,47.1,29.96,SSE,158,1.6,1.6,59,0.00,,CLR,0.00,VWS V14.01,2013-09-30 14:49:00,
2013-09-30 09:51:00,61.7,46.3,29.96,North,0,0.0,0.0,57,0.00,,CLR,0.00,VWS V14.01,2013-09-30 14:51:00,
2013-09-30 09:54:00,62.0,46.6,29.96,South,180,0.0,0.0,57,0.00,,CLR,0.00,VWS V14.01,2013-09-30 14:54:00,
2013-09-30 09:57:00,62.2,45.8,29.96,SSE,158,4.8,5.8,55,0.00,,CLR,0.00,VWS V14.01,2013-09-30 14:57:00,
2013-09-30 09:59:00,62.2,45.8,29.96,South,180,0.0,4.4,55,0.00,,CLR,0.00,VWS V14.01,2013-09-30 14:59:00,
2013-09-30 10:00:00,62.6,45.7,29.96,South,180,0.0,0.0,54,0.00,,CLR,0.00,VWS V14.01,2013-09-30 15:00:00,
2013-09-30 10:01:00,62.6,45.7,29.96,SSE,158,2.6,2.6,54,0.00,,CLR,0.00,VWS V14.01,2013-09-30 15:01:00,
2013-09-30 10:03:00,62.7,45.8,29.96,SSE,158,0.0,2.6,54,0.00,,CLR,0.00,VWS V14.01,2013-09-30 15:03:00,
2013-09-30 10:05:00,63.1,45.7,29.96,SSE,158,10.6,10.6,53,0.00,,CLR,0.00,VWS V14.01,2013-09-30 15:05:00,
2013-09-30 10:06:00,63.3,45.9,29.96,SSE,158,0.0,10.6,53,0.00,,CLR,0.00,VWS V14.01,2013-09-30 15:06:00,
2013-09-30 10:07:00,63.3,45.9,29.96,SSE,158,0.0,0.0,53,0.00,,CLR,0.00,VWS V14.01,2013-09-30 15:07:00,
2013-09-30 10:10:00,63.5,45.1,29.96,South,180,5.8,5.8,51,0.00,,CLR,0.00,VWS V14.01,2013-09-30 15:10:00,
2013-09-30 10:11:00,63.5,45.1,29.96,South,180,0.0,0.0,51,0.00,,CLR,0.00,VWS V14.01,2013-09-30 15:11:00,
2013-09-30 10:12:00,63.5,44.5,29.96,South,180,4.4,4.4,50,0.00,,CLR,0.00,VWS V14.01,2013-09-30 15:12:00,
2013-09-30 10:13:00,63.6,44.6,29.96,SSE,158,7.6,7.6,50,0.00,,CLR,0.00,VWS V14.01,2013-09-30 15:13:00,
2013-09-30 10:15:00,63.6,44.1,29.95,South,180,3.4,3.4,49,0.00,,CLR,0.00,VWS V14.01,2013-09-30 15:15:00,
2013-09-30 10:17:00,63.8,44.8,29.95,South,180,0.0,0.0,50,0.00,,CLR,0.00,VWS V14.01,2013-09-30 15:17:00,
2013-09-30 10:18:00,64.0,45.0,29.95,South,180,0.0,0.0,50,0.00,,CLR,0.00,VWS V14.01,2013-09-30 15:18:00,
2013-09-30 10:19:00,64.0,45.0,29.95,South,180,1.6,1.6,50,0.00,,CLR,0.00,VWS V14.01,2013-09-30 15:19:00,
2013-09-30 10:20:00,64.2,45.2,29.95,South,180,0.0,1.6,50,0.00,,CLR,0.00,VWS V14.01,2013-09-30 15:20:00,
2013-09-30 10:23:00,64.5,45.5,29.95,South,180,0.0,0.0,50,0.00,,CLR,0.00,VWS V14.01,2013-09-30 15:23:00,
2013-09-30 10:24:00,64.7,45.1,29.95,SSE,158,5.2,5.2,49,0.00,,CLR,0.00,VWS V14.01,2013-09-30 15:24:00,
2013-09-30 10:25:00,64.7,45.1,29.96,SE,135,0.0,0.0,49,0.00,,CLR,0.00,VWS V14.01,2013-09-30 15:25:00,
2013-09-30 10:27:00,65.1,44.9,29.96,SSE,158,0.0,0.0,48,0.00,,CLR,0.00,VWS V14.01,2013-09-30 15:27:00,
2013-09-30 10:29:00,65.3,45.1,29.95,SSE,158,2.6,2.6,48,0.00,,CLR,0.00,VWS V14.01,2013-09-30 15:29:00,
2013-09-30 10:33:00,65.6,44.3,29.96,SSE,158,0.0,8.0,46,0.00,,CLR,0.00,VWS V14.01,2013-09-30 15:33:00,
2013-09-30 10:35:00,65.8,44.5,29.96,South,180,3.4,3.4,46,0.00,,CLR,0.00,VWS V14.01,2013-09-30 15:35:00,
2013-09-30 10:36:00,65.8,44.5,29.95,South,180,3.4,3.4,46,0.00,,CLR,0.00,VWS V14.01,2013-09-30 15:36:00,
2013-09-30 10:37:00,66.0,44.7,29.95,South,180,2.6,3.4,46,0.00,,CLR,0.00,VWS V14.01,2013-09-30 15:37:00,
2013-09-30 10:39:00,66.0,44.1,29.95,SSE,158,0.0,9.8,45,0.00,,CLR,0.00,VWS V14.01,2013-09-30 15:39:00,
2013-09-30 10:40:00,66.0,44.1,29.95,South,180,3.4,3.4,45,0.00,,CLR,0.00,VWS V14.01,2013-09-30 15:40:00,
2013-09-30 10:43:00,66.3,43.8,29.95,SSE,158,2.2,2.2,44,0.00,,CLR,0.00,VWS V14.01,2013-09-30 15:43:00,
2013-09-30 10:46:00,66.5,43.9,29.95,South,180,4.8,4.8,44,0.00,,CLR,0.00,VWS V14.01,2013-09-30 15:46:00,
2013-09-30 10:47:00,66.3,43.8,29.95,South,180,0.0,0.0,44,0.00,,CLR,0.00,VWS V14.01,2013-09-30 15:47:00,
2013-09-30 10:48:00,66.5,43.9,29.95,SSW,202,8.0,8.0,44,0.00,,CLR,0.00,VWS V14.01,2013-09-30 15:48:00,
2013-09-30 10:49:00,66.5,43.3,29.95,SSE,158,3.0,8.0,43,0.00,,CLR,0.00,VWS V14.01,2013-09-30 15:49:00,
2013-09-30 10:51:00,66.5,43.3,29.95,SSW,202,0.0,0.0,43,0.00,,CLR,0.00,VWS V14.01,2013-09-30 15:51:00,
2013-09-30 10:52:00,66.5,43.3,29.95,South,180,0.0,0.0,43,0.00,,CLR,0.00,VWS V14.01,2013-09-30 15:52:00,
2013-09-30 10:53:00,66.7,43.5,29.95,South,180,0.0,0.0,43,0.00,,CLR,0.00,VWS V14.01,2013-09-30 15:53:00,
2013-09-30 10:54:00,66.7,43.5,29.95,South,180,0.0,0.0,43,0.00,,CLR,0.00,VWS V14.01,2013-09-30 15:54:00,
2013-09-30 10:55:00,66.7,43.5,29.95,SSE,158,2.6,2.6,43,0.00,,CLR,0.00,VWS V14.01,2013-09-30 15:55:00,
2013-09-30 10:56:00,66.9,43.7,29.96,SSE,158,1.2,2.6,43,0.00,,CLR,0.00,VWS V14.01,2013-09-30 15:56:00,
2013-09-30 10:59:00,66.9,43.7,29.95,South,180,3.0,3.0,43,0.00,,CLR,0.00,VWS V14.01,2013-09-30 15:59:00,
2013-09-30 11:00:00,67.1,43.9,29.96,SSE,158,2.6,3.0,43,0.00,,CLR,0.00,VWS V14.01,2013-09-30 16:00:00,
2013-09-30 11:02:00,67.4,44.2,29.95,SSE,158,4.4,4.4,43,0.00,,CLR,0.00,VWS V14.01,2013-09-30 16:02:00,
2013-09-30 11:03:00,67.6,44.3,29.96,ESE,112,0.0,4.4,43,0.00,,CLR,0.00,VWS V14.01,2013-09-30 16:03:00,
2013-09-30 11:05:00,67.8,43.9,29.95,ESE,112,0.0,0.0,42,0.00,,CLR,0.00,VWS V14.01,2013-09-30 16:05:00,
2013-09-30 11:08:00,68.1,43.5,29.95,South,180,0.0,0.0,41,0.00,,CLR,0.00,VWS V14.01,2013-09-30 16:08:00,
2013-09-30 11:09:00,68.1,43.5,29.95,South,180,5.2,5.2,41,0.00,,CLR,0.00,VWS V14.01,2013-09-30 16:09:00,
2013-09-30 11:10:00,68.3,43.7,29.95,SE,135,0.0,5.2,41,0.00,,CLR,0.00,VWS V14.01,2013-09-30 16:10:00,
2013-09-30 11:13:00,68.5,43.9,29.95,SSE,158,0.0,4.8,41,0.00,,CLR,0.00,VWS V14.01,2013-09-30 16:13:00,
2013-09-30 11:14:00,68.7,43.4,29.95,SW,225,0.0,0.0,40,0.00,,CLR,0.00,VWS V14.01,2013-09-30 16:14:00,
2013-09-30 11:15:00,68.7,43.4,29.95,SW,225,8.4,8.4,40,0.00,,CLR,0.00,VWS V14.01,2013-09-30 16:15:00,
2013-09-30 11:19:00,68.7,41.4,29.95,SSW,202,4.4,5.8,37,0.00,,CLR,0.00,VWS V14.01,2013-09-30 16:19:00,
2013-09-30 11:20:00,68.7,41.4,29.95,SSW,202,4.4,4.4,37,0.00,,CLR,0.00,VWS V14.01,2013-09-30 16:20:00,
2013-09-30 11:23:00,68.7,40.7,29.95,SSE,158,4.4,4.4,36,0.00,,CLR,0.00,VWS V14.01,2013-09-30 16:23:00,
2013-09-30 11:25:00,68.9,40.9,29.95,SE,135,7.0,7.0,36,0.00,,CLR,0.00,VWS V14.01,2013-09-30 16:25:00,
2013-09-30 11:26:00,68.9,40.2,29.95,South,180,0.0,0.0,35,0.00,,CLR,0.00,VWS V14.01,2013-09-30 16:26:00,
2013-09-30 11:27:00,69.0,40.2,29.96,SW,225,0.0,0.0,35,0.00,,CLR,0.00,VWS V14.01,2013-09-30 16:27:00,
2013-09-30 11:29:00,69.2,40.4,29.95,South,180,0.0,6.2,35,0.00,,CLR,0.00,VWS V14.01,2013-09-30 16:29:00,
2013-09-30 11:30:00,69.2,40.4,29.95,South,180,0.0,0.0,35,0.00,,CLR,0.00,VWS V14.01,2013-09-30 16:30:00,
2013-09-30 11:32:00,69.4,40.6,29.95,SW,225,0.0,0.0,35,0.00,,CLR,0.00,VWS V14.01,2013-09-30 16:32:00,
2013-09-30 11:35:00,69.9,40.3,29.95,SSE,158,6.6,6.6,34,0.00,,CLR,0.00,VWS V14.01,2013-09-30 16:35:00,
2013-09-30 11:37:00,69.9,40.3,29.95,SE,135,3.0,6.6,34,0.00,,CLR,0.00,VWS V14.01,2013-09-30 16:37:00,
2013-09-30 11:39:00,70.1,40.5,29.95,SSE,158,0.0,6.2,34,0.00,,CLR,0.00,VWS V14.01,2013-09-30 16:39:00,
2013-09-30 11:41:00,70.1,40.5,29.94,South,180,4.0,4.0,34,0.00,,CLR,0.00,VWS V14.01,2013-09-30 16:41:00,
2013-09-30 11:43:00,70.1,39.7,29.94,South,180,0.0,4.0,33,0.00,,CLR,0.00,VWS V14.01,2013-09-30 16:43:00,
2013-09-30 11:45:00,70.1,38.9,29.94,South,180,4.0,4.4,32,0.00,,CLR,0.00,VWS V14.01,2013-09-30 16:45:00,
2013-09-30 11:47:00,70.1,38.1,29.94,SSE,158,6.2,10.6,31,0.00,,CLR,0.00,VWS V14.01,2013-09-30 16:47:00,
2013-09-30 11:48:00,70.1,38.1,29.94,SSE,158,6.2,6.2,31,0.00,,CLR,0.00,VWS V14.01,2013-09-30 16:48:00,
2013-09-30 11:51:00,70.1,37.3,29.94,South,180,10.6,10.6,30,0.00,,CLR,0.00,VWS V14.01,2013-09-30 16:51:00,
2013-09-30 11:53:00,69.9,37.1,29.94,South,180,8.8,10.6,30,0.00,,CLR,0.00,VWS V14.01,2013-09-30 16:53:00,
2013-09-30 11:54:00,70.1,37.3,29.94,SSE,158,0.0,0.0,30,0.00,,CLR,0.00,VWS V14.01,2013-09-30 16:54:00,
2013-09-30 11:55:00,70.1,37.3,29.94,South,180,4.8,4.8,30,0.00,,CLR,0.00,VWS V14.01,2013-09-30 16:55:00,
2013-09-30 11:57:00,70.3,37.4,29.94,South,180,2.2,13.4,30,0.00,,CLR,0.00,VWS V14.01,2013-09-30 16:57:00,
2013-09-30 11:58:00,70.3,37.4,29.94,South,180,2.2,2.2,30,0.00,,CLR,0.00,VWS V14.01,2013-09-30 16:58:00,
2013-09-30 12:00:00,70.5,37.6,29.94,SSE,158,0.0,0.0,30,0.00,,CLR,0.00,VWS V14.01,2013-09-30 17:00:00,
2013-09-30 12:02:00,70.8,38.7,29.94,SSE,158,0.0,0.0,31,0.00,,CLR,0.00,VWS V14.01,2013-09-30 17:02:00,
2013-09-30 12:03:00,70.8,37.0,29.94,South,180,4.8,4.8,29,0.00,,CLR,0.00,VWS V14.01,2013-09-30 17:03:00,
2013-09-30 12:06:00,71.0,37.2,29.94,SSE,158,5.2,5.2,29,0.00,,CLR,0.00,VWS V14.01,2013-09-30 17:06:00,
2013-09-30 12:07:00,71.0,36.3,29.94,SSE,158,8.8,8.8,28,0.00,,CLR,0.00,VWS V14.01,2013-09-30 17:07:00,
2013-09-30 12:09:00,71.0,36.3,29.95,South,180,2.2,2.2,28,0.00,,CLR,0.00,VWS V14.01,2013-09-30 17:09:00,
2013-09-30 12:11:00,71.2,36.5,29.94,SSW,202,6.2,6.2,28,0.00,,CLR,0.00,VWS V14.01,2013-09-30 17:11:00,
2013-09-30 12:13:00,71.4,36.6,29.94,SW,225,0.8,9.2,28,0.00,,CLR,0.00,VWS V14.01,2013-09-30 17:13:00,
2013-09-30 12:17:00,71.7,36.9,29.94,South,180,1.6,1.6,28,0.00,,CLR,0.00,VWS V14.01,2013-09-30 17:17:00,
2013-09-30 12:18:00,71.9,37.1,29.94,South,180,8.4,8.4,28,0.00,,CLR,0.00,VWS V14.01,2013-09-30 17:18:00,
2013-09-30 12:19:00,71.9,37.1,29.94,South,180,1.2,8.4,28,0.00,,CLR,0.00,VWS V14.01,2013-09-30 17:19:00,
2013-09-30 12:22:00,72.1,36.3,29.94,SSE,158,8.4,8.4,27,0.00,,CLR,0.00,VWS V14.01,2013-09-30 17:22:00,
2013-09-30 12:23:00,72.1,36.3,29.95,South,180,0.0,8.4,27,0.00,,CLR,0.00,VWS V14.01,2013-09-30 17:23:00,
2013-09-30 12:25:00,72.3,36.5,29.94,SSE,158,0.0,0.0,27,0.00,,CLR,0.00,VWS V14.01,2013-09-30 17:25:00,
2013-09-30 12:26:00,72.3,37.4,29.94,SSW,202,5.8,5.8,28,0.00,,CLR,0.00,VWS V14.01,2013-09-30 17:26:00,
2013-09-30 12:27:00,72.5,36.7,29.94,South,180,0.0,5.8,27,0.00,,CLR,0.00,VWS V14.01,2013-09-30 17:27:00,
2013-09-30 12:28:00,72.5,36.7,29.94,South,180,0.0,0.0,27,0.00,,CLR,0.00,VWS V14.01,2013-09-30 17:28:00,
2013-09-30 12:29:00,72.6,36.7,29.94,SSE,158,0.0,0.0,27,0.00,,CLR,0.00,VWS V14.01,2013-09-30 17:29:00,
2013-09-30 12:30:00,72.6,36.7,29.94,SSE,158,0.0,0.0,27,0.00,,CLR,0.00,VWS V14.01,2013-09-30 17:30:00,
2013-09-30 12:31:00,72.6,36.7,29.94,South,180,0.0,0.0,27,0.00,,CLR,0.00,VWS V14.01,2013-09-30 17:31:00,
2013-09-30 12:34:00,72.8,36.9,29.93,SSW,202,0.0,0.0,27,0.00,,CLR,0.00,VWS V14.01,2013-09-30 17:34:00,
2013-09-30 12:35:00,73.0,37.1,29.93,ESE,112,4.8,4.8,27,0.00,,CLR,0.00,VWS V14.01,2013-09-30 17:35:00,
2013-09-30 12:36:00,73.0,36.1,29.93,SW,225,0.0,0.0,26,0.00,,CLR,0.00,VWS V14.01,2013-09-30 17:36:00,
2013-09-30 12:37:00,73.0,36.1,29.93,SW,225,0.0,0.0,26,0.00,,CLR,0.00,VWS V14.01,2013-09-30 17:37:00,
2013-09-30 12:40:00,73.2,36.3,29.93,SSE,158,6.2,8.0,26,0.00,,CLR,0.00,VWS V14.01,2013-09-30 17:40:00,
2013-09-30 12:42:00,73.2,36.3,29.93,SSE,158,6.6,6.6,26,0.00,,CLR,0.00,VWS V14.01,2013-09-30 17:42:00,
2013-09-30 12:43:00,73.4,36.5,29.93,South,180,0.8,6.6,26,0.00,,CLR,0.00,VWS V14.01,2013-09-30 17:43:00,
2013-09-30 12:45:00,73.5,36.5,29.93,SE,135,0.0,0.0,26,0.00,,CLR,0.00,VWS V14.01,2013-09-30 17:45:00,
2013-09-30 12:47:00,73.5,35.6,29.93,SSE,158,0.0,8.0,25,0.00,,CLR,0.00,VWS V14.01,2013-09-30 17:47:00,
2013-09-30 12:48:00,73.5,34.5,29.93,SE,135,1.6,1.6,24,0.00,,CLR,0.00,VWS V14.01,2013-09-30 17:48:00,
2013-09-30 12:50:00,73.5,34.5,29.93,SSE,158,1.6,2.6,24,0.00,,CLR,0.00,VWS V14.01,2013-09-30 17:50:00,
2013-09-30 12:52:00,73.7,35.7,29.93,SE,135,0.0,7.0,25,0.00,,CLR,0.00,VWS V14.01,2013-09-30 17:52:00,
2013-09-30 12:53:00,73.7,35.7,29.92,SE,135,1.2,7.0,25,0.00,,CLR,0.00,VWS V14.01,2013-09-30 17:53:00,
2013-09-30 12:55:00,73.9,35.9,29.92,SSE,158,2.2,2.2,25,0.00,,CLR,0.00,VWS V14.01,2013-09-30 17:55:00,
2013-09-30 12:57:00,74.1,36.1,29.92,South,180,3.4,3.4,25,0.00,,CLR,0.00,VWS V14.01,2013-09-30 17:57:00,
2013-09-30 13:01:00,74.1,35.0,29.92,South,180,3.4,4.8,24,0.00,,CLR,0.00,VWS V14.01,2013-09-30 18:01:00,
2013-09-30 13:02:00,74.1,35.0,29.93,South,180,5.8,5.8,24,0.00,,CLR,0.00,VWS V14.01,2013-09-30 18:02:00,
2013-09-30 13:03:00,74.1,35.0,29.92,South,180,3.0,3.0,24,0.00,,CLR,0.00,VWS V14.01,2013-09-30 18:03:00,
2013-09-30 13:06:00,74.1,35.0,29.91,SSE,158,8.0,8.0,24,0.00,,CLR,0.00,VWS V14.01,2013-09-30 18:06:00,
2013-09-30 13:07:00,74.3,35.2,29.92,South,180,4.4,4.4,24,0.00,,CLR,0.00,VWS V14.01,2013-09-30 18:07:00,
2013-09-30 13:08:00,74.3,34.1,29.91,SSE,158,0.0,4.4,23,0.00,,CLR,0.00,VWS V14.01,2013-09-30 18:08:00,
2013-09-30 13:11:00,74.3,34.1,29.91,South,180,12.0,12.0,23,0.00,,CLR,0.00,VWS V14.01,2013-09-30 18:11:00,
2013-09-30 13:14:00,74.1,32.9,29.91,South,180,0.0,4.0,22,0.00,,CLR,0.00,VWS V14.01,2013-09-30 18:14:00,
2013-09-30 13:15:00,74.1,32.9,29.91,South,180,3.0,4.0,22,0.00,,CLR,0.00,VWS V14.01,2013-09-30 18:15:00,
2013-09-30 13:16:00,74.1,32.9,29.90,SW,225,0.0,3.0,22,0.00,,CLR,0.00,VWS V14.01,2013-09-30 18:16:00,
2013-09-30 13:17:00,73.9,32.7,29.90,WSW,248,0.0,3.0,22,0.00,,CLR,0.00,VWS V14.01,2013-09-30 18:17:00,
2013-09-30 13:20:00,73.9,33.8,29.90,South,180,0.0,4.4,23,0.00,,CLR,0.00,VWS V14.01,2013-09-30 18:20:00,
2013-09-30 13:22:00,73.7,33.6,29.90,SW,225,0.0,4.8,23,0.00,,CLR,0.00,VWS V14.01,2013-09-30 18:22:00,
2013-09-30 13:23:00,73.7,33.6,29.90,SSW,202,0.0,4.8,23,0.00,,CLR,0.00,VWS V14.01,2013-09-30 18:23:00,
2013-09-30 13:25:00,73.9,33.8,29.90,South,180,12.0,12.0,23,0.00,,CLR,0.00,VWS V14.01,2013-09-30 18:25:00,
2013-09-30 13:26:00,73.9,33.8,29.90,South,180,5.2,12.0,23,0.00,,CLR,0.00,VWS V14.01,2013-09-30 18:26:00,
2013-09-30 13:29:00,74.1,34.0,29.90,SSW,202,4.8,4.8,23,0.00,,CLR,0.00,VWS V14.01,2013-09-30 18:29:00,
2013-09-30 13:31:00,74.1,34.0,29.90,South,180,0.0,4.8,23,0.00,,CLR,0.00,VWS V14.01,2013-09-30 18:31:00,
2013-09-30 13:32:00,74.1,34.0,29.90,South,180,2.6,2.6,23,0.00,,CLR,0.00,VWS V14.01,2013-09-30 18:32:00,
2013-09-30 13:36:00,74.1,34.0,29.90,SSE,158,0.0,4.8,23,0.00,,CLR,0.00,VWS V14.01,2013-09-30 18:36:00,
2013-09-30 13:37:00,74.3,34.1,29.90,SE,135,0.0,4.8,23,0.00,,CLR,0.00,VWS V14.01,2013-09-30 18:37:00,
2013-09-30 13:38:00,74.3,34.1,29.90,South,180,2.6,2.6,23,0.00,,CLR,0.00,VWS V14.01,2013-09-30 18:38:00,
2013-09-30 13:39:00,74.3,35.2,29.89,SSE,158,5.2,5.2,24,0.00,,CLR,0.00,VWS V14.01,2013-09-30 18:39:00,
2013-09-30 13:42:00,74.1,34.0,29.89,South,180,3.4,3.4,23,0.00,,CLR,0.00,VWS V14.01,2013-09-30 18:42:00,
2013-09-30 13:43:00,74.1,34.0,29.89,SE,135,7.0,7.0,23,0.00,,CLR,0.00,VWS V14.01,2013-09-30 18:43:00,
2013-09-30 13:44:00,74.1,34.0,29.89,South,180,13.8,13.8,23,0.00,,CLR,0.00,VWS V14.01,2013-09-30 18:44:00,
2013-09-30 13:45:00,74.1,34.0,29.89,South,180,0.0,13.8,23,0.00,,CLR,0.00,VWS V14.01,2013-09-30 18:45:00,
2013-09-30 13:48:00,73.7,32.5,29.89,SSE,158,4.0,14.2,22,0.00,,CLR,0.00,VWS V14.01,2013-09-30 18:48:00,
2013-09-30 13:49:00,73.9,32.7,29.89,SE,135,5.2,5.2,22,0.00,,CLR,0.00,VWS V14.01,2013-09-30 18:49:00,
2013-09-30 13:50:00,73.7,32.5,29.89,SSE,158,7.0,7.0,22,0.00,,CLR,0.00,VWS V14.01,2013-09-30 18:50:00,
2013-09-30 13:54:00,73.5,33.5,29.89,South,180,0.0,0.0,23,0.00,,CLR,0.00,VWS V14.01,2013-09-30 18:54:00,
2013-09-30 13:55:00,73.5,33.5,29.89,SSW,202,1.2,1.2,23,0.00,,CLR,0.00,VWS V14.01,2013-09-30 18:55:00,
2013-09-30 13:56:00,73.5,33.5,29.89,SSE,158,2.6,2.6,23,0.00,,CLR,0.00,VWS V14.01,2013-09-30 18:56:00,
2013-09-30 13:59:00,73.9,34.9,29.88,South,180,9.2,9.2,24,0.00,,CLR,0.00,VWS V14.01,2013-09-30 18:59:00,
2013-09-30 14:01:00,74.3,35.2,29.89,West,270,9.8,9.8,24,0.00,,CLR,0.00,VWS V14.01,2013-09-30 19:01:00,
2013-09-30 14:04:00,74.1,34.0,29.88,SSW,202,6.2,6.2,23,0.00,,CLR,0.00,VWS V14.01,2013-09-30 19:04:00,
2013-09-30 14:05:00,74.3,34.1,29.88,SE,135,0.0,0.0,23,0.00,,CLR,0.00,VWS V14.01,2013-09-30 19:05:00,
2013-09-30 14:06:00,74.3,34.1,29.88,South,180,3.0,3.0,23,0.00,,CLR,0.00,VWS V14.01,2013-09-30 19:06:00,
2013-09-30 14:09:00,74.3,34.1,29.88,SE,135,9.2,9.2,23,0.00,,CLR,0.00,VWS V14.01,2013-09-30 19:09:00,
2013-09-30 14:10:00,74.6,34.4,29.88,South,180,12.8,12.8,23,0.00,,CLR,0.00,VWS V14.01,2013-09-30 19:10:00,
2013-09-30 14:11:00,74.4,34.2,29.88,SW,225,0.0,12.8,23,0.00,,CLR,0.00,VWS V14.01,2013-09-30 19:11:00,
2013-09-30 14:13:00,74.6,33.3,29.88,South,180,7.0,7.6,22,0.00,,CLR,0.00,VWS V14.01,2013-09-30 19:13:00,
2013-09-30 14:14:00,74.6,33.3,29.88,South,180,14.6,14.6,22,0.00,,CLR,0.00,VWS V14.01,2013-09-30 19:14:00,
2013-09-30 14:15:00,74.6,33.3,29.88,South,180,6.2,6.2,22,0.00,,CLR,0.00,VWS V14.01,2013-09-30 19:15:00,
2013-09-30 14:17:00,74.6,33.3,29.88,South,180,0.0,0.0,22,0.00,,CLR,0.00,VWS V14.01,2013-09-30 19:17:00,
2013-09-30 14:19:00,74.6,33.3,29.88,South,180,0.0,0.0,22,0.00,,CLR,0.00,VWS V14.01,2013-09-30 19:19:00,
2013-09-30 14:22:00,74.8,34.6,29.88,South,180,0.0,3.4,23,0.00,,CLR,0.00,VWS V14.01,2013-09-30 19:22:00,
2013-09-30 14:24:00,74.8,33.5,29.88,South,180,2.6,2.6,22,0.00,,CLR,0.00,VWS V14.01,2013-09-30 19:24:00,
2013-09-30 14:25:00,74.8,33.5,29.88,SW,225,3.4,3.4,22,0.00,,CLR,0.00,VWS V14.01,2013-09-30 19:25:00,
2013-09-30 14:27:00,74.8,34.6,29.88,South,180,3.4,3.4,23,0.00,,CLR,0.00,VWS V14.01,2013-09-30 19:27:00,
2013-09-30 14:28:00,74.8,34.6,29.88,West,270,0.0,3.4,23,0.00,,CLR,0.00,VWS V14.01,2013-09-30 19:28:00,
2013-09-30 14:30:00,74.8,33.5,29.88,South,180,7.0,7.0,22,0.00,,CLR,0.00,VWS V14.01,2013-09-30 19:30:00,
2013-09-30 14:31:00,74.8,33.5,29.88,South,180,3.0,7.0,22,0.00,,CLR,0.00,VWS V14.01,2013-09-30 19:31:00,
2013-09-30 14:33:00,74.8,33.5,29.87,South,180,5.8,5.8,22,0.00,,CLR,0.00,VWS V14.01,2013-09-30 19:33:00,
2013-09-30 14:36:00,75.2,34.9,29.87,ESE,112,4.4,4.8,23,0.00,,CLR,0.00,VWS V14.01,2013-09-30 19:36:00,
2013-09-30 14:37:00,75.3,35.0,29.88,ESE,112,0.0,4.8,23,0.00,,CLR,0.00,VWS V14.01,2013-09-30 19:37:00,
2013-09-30 14:38:00,75.3,35.0,29.88,South,180,2.2,2.2,23,0.00,,CLR,0.00,VWS V14.01,2013-09-30 19:38:00,
2013-09-30 14:39:00,75.5,36.2,29.88,SSW,202,1.6,1.6,24,0.00,,CLR,0.00,VWS V14.01,2013-09-30 19:39:00,
2013-09-30 14:43:00,75.9,33.2,29.88,SSE,158,4.8,4.8,21,0.00,,CLR,0.00,VWS V14.01,2013-09-30 19:43:00,
2013-09-30 14:45:00,75.9,34.4,29.88,SSE,158,4.4,4.8,22,0.00,,CLR,0.00,VWS V14.01,2013-09-30 19:45:00,
2013-09-30 14:47:00,75.9,34.4,29.87,WSW,248,4.0,5.2,22,0.00,,CLR,0.00,VWS V14.01,2013-09-30 19:47:00,
2013-09-30 14:49:00,75.9,34.4,29.87,SSE,158,3.4,4.0,22,0.00,,CLR,0.00,VWS V14.01,2013-09-30 19:49:00,
2013-09-30 14:51:00,75.9,34.4,29.87,South,180,0.0,0.0,22,0.00,,CLR,0.00,VWS V14.01,2013-09-30 19:51:00,
2013-09-30 14:52:00,75.9,34.4,29.87,South,180,7.6,7.6,22,0.00,,CLR,0.00,VWS V14.01,2013-09-30 19:52:00,
2013-09-30 14:53:00,75.9,34.4,29.87,SSE,158,2.2,7.6,22,0.00,,CLR,0.00,VWS V14.01,2013-09-30 19:53:00,
2013-09-30 14:56:00,75.9,34.4,29.87,South,180,4.4,4.4,22,0.00,,CLR,0.00,VWS V14.01,2013-09-30 19:56:00,
2013-09-30 14:57:00,75.9,33.2,29.87,SSE,158,0.0,4.4,21,0.00,,CLR,0.00,VWS V14.01,2013-09-30 19:57:00,
2013-09-30 14:59:00,75.9,34.4,29.87,SE,135,4.8,4.8,22,0.00,,CLR,0.00,VWS V14.01,2013-09-30 19:59:00,
2013-09-30 15:00:00,75.9,34.4,29.87,SE,135,4.8,4.8,22,0.00,,CLR,0.00,VWS V14.01,2013-09-30 20:00:00,
2013-09-30 15:01:00,75.9,33.2,29.87,SSE,158,5.2,5.2,21,0.00,,CLR,0.00,VWS V14.01,2013-09-30 20:01:00,
2013-09-30 15:06:00,75.7,33.0,29.86,SSE,158,0.0,0.0,21,0.00,,CLR,0.00,VWS V14.01,2013-09-30 20:06:00,
2013-09-30 15:07:00,75.7,33.0,29.86,South,180,9.8,9.8,21,0.00,,CLR,0.00,VWS V14.01,2013-09-30 20:07:00,
2013-09-30 15:08:00,75.7,33.0,29.86,South,180,0.0,0.0,21,0.00,,CLR,0.00,VWS V14.01,2013-09-30 20:08:00,
2013-09-30 15:11:00,75.7,33.0,29.86,South,180,6.2,6.2,21,0.00,,CLR,0.00,VWS V14.01,2013-09-30 20:11:00,
2013-09-30 15:12:00,75.7,33.0,29.86,South,180,6.2,6.2,21,0.00,,CLR,0.00,VWS V14.01,2013-09-30 20:12:00,
2013-09-30 15:13:00,75.5,32.9,29.86,South,180,5.8,6.2,21,0.00,,CLR,0.00,VWS V14.01,2013-09-30 20:13:00,
2013-09-30 15:14:00,75.5,32.9,29.86,South,180,4.4,4.4,21,0.00,,CLR,0.00,VWS V14.01,2013-09-30 20:14:00,
2013-09-30 15:17:00,75.5,32.9,29.86,South,180,4.8,11.0,21,0.00,,CLR,0.00,VWS V14.01,2013-09-30 20:17:00,
2013-09-30 15:19:00,75.5,32.9,29.86,South,180,0.0,6.2,21,0.00,,CLR,0.00,VWS V14.01,2013-09-30 20:19:00,
2013-09-30 15:21:00,75.5,32.9,29.86,SSW,202,0.0,0.0,21,0.00,,CLR,0.00,VWS V14.01,2013-09-30 20:21:00,
2013-09-30 15:22:00,75.5,34.0,29.86,SE,135,12.4,12.4,22,0.00,,CLR,0.00,VWS V14.01,2013-09-30 20:22:00,
2013-09-30 15:25:00,75.9,33.2,29.86,South,180,0.0,9.2,21,0.00,,CLR,0.00,VWS V14.01,2013-09-30 20:25:00,
2013-09-30 15:27:00,75.9,33.2,29.86,South,180,4.0,4.0,21,0.00,,CLR,0.00,VWS V14.01,2013-09-30 20:27:00,
2013-09-30 15:29:00,75.9,34.4,29.86,South,180,3.0,3.0,22,0.00,,CLR,0.00,VWS V14.01,2013-09-30 20:29:00,
2013-09-30 15:30:00,75.9,34.4,29.86,South,180,0.0,0.0,22,0.00,,CLR,0.00,VWS V14.01,2013-09-30 20:30:00,
2013-09-30 15:31:00,76.1,30.9,29.86,SSE,158,0.0,0.0,19,0.00,,CLR,0.00,VWS V14.01,2013-09-30 20:31:00,
2013-09-30 15:33:00,76.1,33.4,29.85,SSE,158,0.0,0.0,21,0.00,,CLR,0.00,VWS V14.01,2013-09-30 20:33:00,
2013-09-30 15:35:00,76.4,31.1,29.85,South,180,4.4,4.8,19,0.00,,CLR,0.00,VWS V14.01,2013-09-30 20:35:00,
2013-09-30 15:36:00,76.4,31.1,29.85,South,180,4.4,4.4,19,0.00,,CLR,0.00,VWS V14.01,2013-09-30 20:36:00,
2013-09-30 15:39:00,76.4,31.1,29.85,South,180,0.0,4.8,19,0.00,,CLR,0.00,VWS V14.01,2013-09-30 20:39:00,
2013-09-30 15:40:00,76.4,31.1,29.85,South,180,4.8,4.8,19,0.00,,CLR,0.00,VWS V14.01,2013-09-30 20:40:00,
2013-09-30 15:41:00,76.4,31.1,29.85,West,270,0.0,4.8,19,0.00,,CLR,0.00,VWS V14.01,2013-09-30 20:41:00,
2013-09-30 15:42:00,76.4,31.1,29.85,SSW,202,0.0,0.0,19,0.00,,CLR,0.00,VWS V14.01,2013-09-30 20:42:00,
2013-09-30 15:44:00,76.4,31.1,29.85,South,180,2.2,2.2,19,0.00,,CLR,0.00,VWS V14.01,2013-09-30 20:44:00,
2013-09-30 15:47:00,76.4,31.1,29.85,SSE,158,1.6,4.4,19,0.00,,CLR,0.00,VWS V14.01,2013-09-30 20:47:00,
2013-09-30 15:49:00,76.4,31.1,29.85,South,180,6.2,9.2,19,0.00,,CLR,0.00,VWS V14.01,2013-09-30 20:49:00,
2013-09-30 15:51:00,76.2,31.0,29.85,South,180,4.8,4.8,19,0.00,,CLR,0.00,VWS V14.01,2013-09-30 20:51:00,
2013-09-30 15:53:00,76.4,31.1,29.85,WSW,248,5.2,5.2,19,0.00,,CLR,0.00,VWS V14.01,2013-09-30 20:53:00,
2013-09-30 15:55:00,76.4,31.1,29.85,WSW,248,4.4,5.2,19,0.00,,CLR,0.00,VWS V14.01,2013-09-30 20:55:00,
2013-09-30 15:56:00,76.4,31.1,29.85,SE,135,0.0,0.0,19,0.00,,CLR,0.00,VWS V14.01,2013-09-30 20:56:00,
2013-09-30 15:58:00,76.6,31.3,29.85,SSW,202,0.0,0.0,19,0.00,,CLR,0.00,VWS V14.01,2013-09-30 20:58:00,
2013-09-30 15:59:00,76.6,31.3,29.85,South,180,10.6,10.6,19,0.00,,CLR,0.00,VWS V14.01,2013-09-30 20:59:00,
2013-09-30 16:02:00,76.6,31.3,29.85,SSE,158,4.8,4.8,19,0.00,,CLR,0.00,VWS V14.01,2013-09-30 21:02:00,
2013-09-30 16:04:00,76.6,31.3,29.85,SSE,158,6.2,6.2,19,0.00,,CLR,0.00,VWS V14.01,2013-09-30 21:04:00,
2013-09-30 16:07:00,76.6,31.3,29.85,SE,135,0.0,9.2,19,0.00,,CLR,0.00,VWS V14.01,2013-09-30 21:07:00,
2013-09-30 16:08:00,76.4,31.1,29.85,SSE,158,0.0,0.0,19,0.00,,CLR,0.00,VWS V14.01,2013-09-30 21:08:00,
2013-09-30 16:09:00,76.6,31.3,29.85,SSW,202,1.6,1.6,19,0.00,,CLR,0.00,VWS V14.01,2013-09-30 21:09:00,
2013-09-30 16:13:00,76.4,31.1,29.85,SSE,158,1.2,1.2,19,0.00,,CLR,0.00,VWS V14.01,2013-09-30 21:13:00,
2013-09-30 16:15:00,76.4,31.1,29.85,ESE,112,8.0,8.0,19,0.00,,CLR,0.00,VWS V14.01,2013-09-30 21:15:00,
2013-09-30 16:16:00,76.2,31.0,29.85,South,180,4.0,4.0,19,0.00,,CLR,0.00,VWS V14.01,2013-09-30 21:16:00,
2013-09-30 16:17:00,76.4,31.1,29.85,South,180,0.0,4.0,19,0.00,,CLR,0.00,VWS V14.01,2013-09-30 21:17:00,
2013-09-30 16:19:00,76.1,30.9,29.85,SSE,158,6.6,6.6,19,0.00,,CLR,0.00,VWS V14.01,2013-09-30 21:19:00,
2013-09-30 16:22:00,76.1,30.9,29.85,SSW,202,4.8,4.8,19,0.00,,CLR,0.00,VWS V14.01,2013-09-30 21:22:00,
2013-09-30 16:23:00,76.2,31.0,29.85,SSW,202,14.6,14.6,19,0.00,,CLR,0.00,VWS V14.01,2013-09-30 21:23:00,
2013-09-30 16:24:00,76.2,31.0,29.85,South,180,4.4,14.6,19,0.00,,CLR,0.00,VWS V14.01,2013-09-30 21:24:00,
2013-09-30 16:27:00,76.2,31.0,29.85,West,270,0.0,6.6,19,0.00,,CLR,0.00,VWS V14.01,2013-09-30 21:27:00,
2013-09-30 16:29:00,76.2,31.0,29.85,WSW,248,7.6,7.6,19,0.00,,CLR,0.00,VWS V14.01,2013-09-30 21:29:00,
2013-09-30 16:30:00,76.4,31.1,29.85,South,180,0.0,7.6,19,0.00,,CLR,0.00,VWS V14.01,2013-09-30 21:30:00,
2013-09-30 16:31:00,76.4,31.1,29.85,South,180,0.0,0.0,19,0.00,,CLR,0.00,VWS V14.01,2013-09-30 21:31:00,
2013-09-30 16:32:00,76.4,31.1,29.85,South,180,4.0,4.0,19,0.00,,CLR,0.00,VWS V14.01,2013-09-30 21:32:00,
2013-09-30 16:34:00,76.4,31.1,29.85,SSE,158,8.4,8.4,19,0.00,,CLR,0.00,VWS V14.01,2013-09-30 21:34:00,
2013-09-30 16:35:00,76.4,31.1,29.85,South,180,4.8,8.4,19,0.00,,CLR,0.00,VWS V14.01,2013-09-30 21:35:00,
2013-09-30 16:40:00,76.4,31.1,29.85,SSW,202,6.6,6.6,19,0.00,,CLR,0.00,VWS V14.01,2013-09-30 21:40:00,
2013-09-30 16:41:00,76.2,31.0,29.84,South,180,0.0,6.6,19,0.00,,CLR,0.00,VWS V14.01,2013-09-30 21:41:00,
2013-09-30 16:42:00,76.2,31.0,29.85,South,180,2.2,2.2,19,0.00,,CLR,0.00,VWS V14.01,2013-09-30 21:42:00,
2013-09-30 16:45:00,76.1,30.9,29.85,SSW,202,2.6,2.6,19,0.00,,CLR,0.00,VWS V14.01,2013-09-30 21:45:00,
2013-09-30 16:47:00,76.4,31.1,29.84,WSW,248,0.0,4.8,19,0.00,,CLR,0.00,VWS V14.01,2013-09-30 21:47:00,
2013-09-30 16:48:00,76.2,31.0,29.85,South,180,4.0,4.0,19,0.00,,CLR,0.00,VWS V14.01,2013-09-30 21:48:00,
2013-09-30 16:50:00,76.4,33.6,29.85,WSW,248,2.2,4.0,21,0.00,,CLR,0.00,VWS V14.01,2013-09-30 21:50:00,
2013-09-30 16:51:00,76.4,33.6,29.84,SSW,202,0.0,0.0,21,0.00,,CLR,0.00,VWS V14.01,2013-09-30 21:51:00,
2013-09-30 16:53:00,76.6,35.0,29.84,South,180,8.4,8.4,22,0.00,,CLR,0.00,VWS V14.01,2013-09-30 21:53:00,
2013-09-30 16:56:00,77.1,35.4,29.84,South,180,0.0,0.0,22,0.00,,CLR,0.00,VWS V14.01,2013-09-30 21:56:00,
2013-09-30 16:57:00,77.1,35.4,29.85,SSE,158,8.0,8.0,22,0.00,,CLR,0.00,VWS V14.01,2013-09-30 21:57:00,
2013-09-30 16:59:00,77.1,35.4,29.84,South,180,0.0,8.0,22,0.00,,CLR,0.00,VWS V14.01,2013-09-30 21:59:00,
2013-09-30 17:01:00,77.1,35.4,29.84,SSE,158,2.6,8.8,22,0.00,,CLR,0.00,VWS V14.01,2013-09-30 22:01:00,
2013-09-30 17:04:00,76.8,35.1,29.84,South,180,3.0,3.0,22,0.00,,CLR,0.00,VWS V14.01,2013-09-30 22:04:00,
2013-09-30 17:06:00,76.6,33.8,29.85,SE,135,0.0,0.0,21,0.00,,CLR,0.00,VWS V14.01,2013-09-30 22:06:00,
2013-09-30 17:07:00,76.6,35.0,29.84,SSE,158,0.0,0.0,22,0.00,,CLR,0.00,VWS V14.01,2013-09-30 22:07:00,
2013-09-30 17:08:00,76.6,35.0,29.84,South,180,3.4,3.4,22,0.00,,CLR,0.00,VWS V14.01,2013-09-30 22:08:00,
2013-09-30 17:09:00,76.4,34.8,29.85,South,180,2.6,2.6,22,0.00,,CLR,0.00,VWS V14.01,2013-09-30 22:09:00,
2013-09-30 17:13:00,76.1,34.5,29.85,South,180,4.4,4.4,22,0.00,,CLR,0.00,VWS V14.01,2013-09-30 22:13:00,
2013-09-30 17:14:00,76.2,35.7,29.85,South,180,5.8,5.8,23,0.00,,CLR,0.00,VWS V14.01,2013-09-30 22:14:00,
2013-09-30 17:15:00,76.1,35.7,29.84,SSW,202,0.0,5.8,23,0.00,,CLR,0.00,VWS V14.01,2013-09-30 22:15:00,
2013-09-30 17:16:00,76.1,35.7,29.84,SW,225,0.4,0.4,23,0.00,,CLR,0.00,VWS V14.01,2013-09-30 22:16:00,
2013-09-30 17:18:00,76.1,35.7,29.84,SSE,158,10.6,10.6,23,0.00,,CLR,0.00,VWS V14.01,2013-09-30 22:18:00,
2013-09-30 17:21:00,76.1,35.7,29.84,South,180,2.6,2.6,23,0.00,,CLR,0.00,VWS V14.01,2013-09-30 22:21:00,
2013-09-30 17:22:00,75.9,35.5,29.84,South,180,7.6,7.6,23,0.00,,CLR,0.00,VWS V14.01,2013-09-30 22:22:00,
2013-09-30 17:23:00,75.9,36.5,29.84,SSE,158,4.8,4.8,24,0.00,,CLR,0.00,VWS V14.01,2013-09-30 22:23:00,
2013-09-30 17:26:00,75.9,37.6,29.84,South,180,0.0,9.2,25,0.00,,CLR,0.00,VWS V14.01,2013-09-30 22:26:00,
2013-09-30 17:27:00,75.9,37.6,29.84,South,180,5.2,9.2,25,0.00,,CLR,0.00,VWS V14.01,2013-09-30 22:27:00,
2013-09-30 17:29:00,75.7,37.4,29.84,South,180,2.2,7.0,25,0.00,,CLR,0.00,VWS V14.01,2013-09-30 22:29:00,
2013-09-30 17:30:00,75.7,37.4,29.84,South,180,0.0,2.2,25,0.00,,CLR,0.00,VWS V14.01,2013-09-30 22:30:00,
2013-09-30 17:33:00,75.7,37.4,29.84,South,180,0.0,0.0,25,0.00,,CLR,0.00,VWS V14.01,2013-09-30 22:33:00,
2013-09-30 17:35:00,75.7,38.4,29.84,SSE,158,0.0,5.2,26,0.00,,CLR,0.00,VWS V14.01,2013-09-30 22:35:00,
2013-09-30 17:36:00,75.5,38.2,29.84,SSE,158,0.0,0.0,26,0.00,,CLR,0.00,VWS V14.01,2013-09-30 22:36:00,
2013-09-30 17:37:00,75.5,38.2,29.84,South,180,4.8,4.8,26,0.00,,CLR,0.00,VWS V14.01,2013-09-30 22:37:00,
2013-09-30 17:39:00,75.5,38.2,29.84,South,180,0.0,4.8,26,0.00,,CLR,0.00,VWS V14.01,2013-09-30 22:39:00,
2013-09-30 17:42:00,75.5,38.2,29.84,SSE,158,2.2,2.2,26,0.00,,CLR,0.00,VWS V14.01,2013-09-30 22:42:00,
2013-09-30 17:43:00,75.5,38.2,29.84,SE,135,5.8,5.8,26,0.00,,CLR,0.00,VWS V14.01,2013-09-30 22:43:00,
2013-09-30 17:44:00,75.5,38.2,29.84,SE,135,0.0,5.8,26,0.00,,CLR,0.00,VWS V14.01,2013-09-30 22:44:00,
2013-09-30 17:45:00,75.3,38.1,29.83,SSE,158,0.0,0.0,26,0.00,,CLR,0.00,VWS V14.01,2013-09-30 22:45:00,
2013-09-30 17:48:00,75.3,38.1,29.84,SSW,202,0.0,2.2,26,0.00,,CLR,0.00,VWS V14.01,2013-09-30 22:48:00,
2013-09-30 17:49:00,75.3,38.1,29.83,South,180,0.0,0.0,26,0.00,,CLR,0.00,VWS V14.01,2013-09-30 22:49:00,
2013-09-30 17:50:00,75.3,38.1,29.84,SSE,158,0.0,0.0,26,0.00,,CLR,0.00,VWS V14.01,2013-09-30 22:50:00,
2013-09-30 17:52:00,75.3,38.1,29.83,South,180,0.0,4.0,26,0.00,,CLR,0.00,VWS V14.01,2013-09-30 22:52:00,
2013-09-30 17:55:00,75.2,38.0,29.83,South,180,0.0,0.0,26,0.00,,CLR,0.00,VWS V14.01,2013-09-30 22:55:00,
2013-09-30 17:58:00,75.0,37.8,29.84,SSW,202,3.4,3.4,26,0.00,,CLR,0.00,VWS V14.01,2013-09-30 22:58:00,
2013-09-30 17:59:00,75.0,37.8,29.83,SSW,202,2.2,3.4,26,0.00,,CLR,0.00,VWS V14.01,2013-09-30 22:59:00,
2013-09-30 18:00:00,75.0,37.8,29.83,South,180,1.6,2.2,26,0.00,,CLR,0.00,VWS V14.01,2013-09-30 23:00:00,
2013-09-30 18:01:00,74.8,37.7,29.84,SSW,202,5.8,5.8,26,0.00,,CLR,0.00,VWS V14.01,2013-09-30 23:01:00,
2013-09-30 18:05:00,74.8,38.6,29.83,South,180,4.4,4.4,27,0.00,,CLR,0.00,VWS V14.01,2013-09-30 23:05:00,
2013-09-30 18:06:00,74.8,38.6,29.83,South,180,4.8,4.8,27,0.00,,CLR,0.00,VWS V14.01,2013-09-30 23:06:00,
2013-09-30 18:07:00,74.6,38.5,29.83,South,180,0.0,4.8,27,0.00,,CLR,0.00,VWS V14.01,2013-09-30 23:07:00,
2013-09-30 18:09:00,74.8,38.6,29.83,SE,135,2.2,2.2,27,0.00,,CLR,0.00,VWS V14.01,2013-09-30 23:09:00,
2013-09-30 18:12:00,74.6,38.5,29.84,South,180,4.4,4.4,27,0.00,,CLR,0.00,VWS V14.01,2013-09-30 23:12:00,
2013-09-30 18:13:00,74.4,38.3,29.83,SSE,158,0.0,4.4,27,0.00,,CLR,0.00,VWS V14.01,2013-09-30 23:13:00,
2013-09-30 18:14:00,74.4,38.3,29.83,SSE,158,0.0,0.0,27,0.00,,CLR,0.00,VWS V14.01,2013-09-30 23:14:00,
2013-09-30 18:15:00,74.4,38.3,29.83,SSE,158,0.0,0.0,27,0.00,,CLR,0.00,VWS V14.01,2013-09-30 23:15:00,
2013-09-30 18:17:00,74.3,38.2,29.84,South,180,0.0,0.0,27,0.00,,CLR,0.00,VWS V14.01,2013-09-30 23:17:00,
2013-09-30 18:19:00,74.3,38.2,29.84,SE,135,0.0,0.0,27,0.00,,CLR,0.00,VWS V14.01,2013-09-30 23:19:00,
2013-09-30 18:20:00,74.3,38.2,29.84,SSE,158,3.4,3.4,27,0.00,,CLR,0.00,VWS V14.01,2013-09-30 23:20:00,
2013-09-30 18:21:00,74.3,39.1,29.84,SSE,158,2.6,3.4,28,0.00,,CLR,0.00,VWS V14.01,2013-09-30 23:21:00,
2013-09-30 18:22:00,74.3,40.0,29.84,SSE,158,0.0,0.0,29,0.00,,CLR,0.00,VWS V14.01,2013-09-30 23:22:00,
2013-09-30 18:23:00,74.1,39.8,29.83,SSE,158,0.0,0.0,29,0.00,,CLR,0.00,VWS V14.01,2013-09-30 23:23:00,
2013-09-30 18:25:00,74.1,39.8,29.84,SSE,158,0.0,5.8,29,0.00,,CLR,0.00,VWS V14.01,2013-09-30 23:25:00,
2013-09-30 18:27:00,74.1,39.8,29.84,SSE,158,0.0,3.4,29,0.00,,CLR,0.00,VWS V14.01,2013-09-30 23:27:00,
2013-09-30 18:29:00,73.9,39.7,29.84,South,180,4.8,4.8,29,0.00,,CLR,0.00,VWS V14.01,2013-09-30 23:29:00,
2013-09-30 18:32:00,73.7,39.5,29.84,South,180,0.0,0.0,29,0.00,,CLR,0.00,VWS V14.01,2013-09-30 23:32:00,
2013-09-30 18:33:00,73.5,39.3,29.84,South,180,0.0,0.0,29,0.00,,CLR,0.00,VWS V14.01,2013-09-30 23:33:00,
2013-09-30 18:34:00,73.5,39.3,29.84,South,180,0.0,0.0,29,0.00,,CLR,0.00,VWS V14.01,2013-09-30 23:34:00,
2013-09-30 18:37:00,73.5,40.2,29.84,South,180,0.0,0.0,30,0.00,,CLR,0.00,VWS V14.01,2013-09-30 23:37:00,
2013-09-30 18:39:00,73.4,40.1,29.84,South,180,0.0,0.0,30,0.00,,CLR,0.00,VWS V14.01,2013-09-30 23:39:00,
2013-09-30 18:42:00,73.0,39.8,29.84,South,180,0.0,0.0,30,0.00,,CLR,0.00,VWS V14.01,2013-09-30 23:42:00,
2013-09-30 18:43:00,73.0,40.6,29.84,South,180,0.0,0.0,31,0.00,,CLR,0.00,VWS V14.01,2013-09-30 23:43:00,
2013-09-30 18:45:00,73.0,40.6,29.84,SSE,158,0.0,0.0,31,0.00,,CLR,0.00,VWS V14.01,2013-09-30 23:45:00,
2013-09-30 18:46:00,73.0,40.6,29.84,South,180,0.0,0.0,31,0.00,,CLR,0.00,VWS V14.01,2013-09-30 23:46:00,
2013-09-30 18:50:00,72.8,40.4,29.84,South,180,0.0,0.0,31,0.00,,CLR,0.00,VWS V14.01,2013-09-30 23:50:00,
2013-09-30 18:51:00,72.6,41.1,29.84,South,180,0.0,0.0,32,0.00,,CLR,0.00,VWS V14.01,2013-09-30 23:51:00,
2013-09-30 18:55:00,72.5,41.0,29.84,South,180,0.0,1.6,32,0.00,,CLR,0.00,VWS V14.01,2013-09-30 23:55:00,
2013-09-30 18:57:00,72.3,41.6,29.84,SSE,158,0.0,1.6,33,0.00,,CLR,0.00,VWS V14.01,2013-09-30 23:57:00,
2013-09-30 18:59:00,72.3,41.6,29.84,SSE,158,2.2,2.2,33,0.00,,CLR,0.00,VWS V14.01,2013-09-30 23:59:00,
2013-09-30 19:01:00,72.1,41.4,29.84,SSE,158,0.0,2.2,33,0.00,,CLR,0.00,VWS V14.01,2013-10-01 00:01:00,
2013-09-30 19:02:00,72.1,41.4,29.84,SSE,158,0.0,0.0,33,0.00,,CLR,0.00,VWS V14.01,2013-10-01 00:02:00,
2013-09-30 19:03:00,72.1,41.4,29.84,SSE,158,0.0,0.0,33,0.00,,CLR,0.00,VWS V14.01,2013-10-01 00:03:00,
2013-09-30 19:05:00,71.9,41.3,29.84,South,180,0.0,0.0,33,0.00,,CLR,0.00,VWS V14.01,2013-10-01 00:05:00,
2013-09-30 19:08:00,71.9,41.3,29.83,SSW,202,0.0,0.0,33,0.00,,CLR,0.00,VWS V14.01,2013-10-01 00:08:00,
2013-09-30 19:09:00,71.7,41.1,29.83,South,180,0.0,0.0,33,0.00,,CLR,0.00,VWS V14.01,2013-10-01 00:09:00,
2013-09-30 19:10:00,71.7,41.1,29.83,South,180,2.2,2.2,33,0.00,,CLR,0.00,VWS V14.01,2013-10-01 00:10:00,
2013-09-30 19:11:00,71.7,41.1,29.83,South,180,0.0,2.2,33,0.00,,CLR,0.00,VWS V14.01,2013-10-01 00:11:00,
2013-09-30 19:15:00,71.6,41.8,29.84,South,180,0.0,0.0,34,0.00,,CLR,0.00,VWS V14.01,2013-10-01 00:15:00,
2013-09-30 19:16:00,71.6,41.8,29.84,South,180,0.0,0.0,34,0.00,,CLR,0.00,VWS V14.01,2013-10-01 00:16:00,
2013-09-30 19:18:00,71.6,41.8,29.84,South,180,0.0,3.0,34,0.00,,CLR,0.00,VWS V14.01,2013-10-01 00:18:00,
2013-09-30 19:19:00,71.2,41.4,29.84,South,180,0.0,0.0,34,0.00,,CLR,0.00,VWS V14.01,2013-10-01 00:19:00,
2013-09-30 19:22:00,71.2,41.4,29.84,South,180,0.0,0.0,34,0.00,,CLR,0.00,VWS V14.01,2013-10-01 00:22:00,
2013-09-30 19:23:00,71.2,41.4,29.84,South,180,0.0,0.0,34,0.00,,CLR,0.00,VWS V14.01,2013-10-01 00:23:00,
2013-09-30 19:24:00,71.0,41.2,29.84,South,180,0.0,0.0,34,0.00,,CLR,0.00,VWS V14.01,2013-10-01 00:24:00,
2013-09-30 19:27:00,71.0,42.0,29.85,South,180,0.0,0.0,35,0.00,,CLR,0.00,VWS V14.01,2013-10-01 00:27:00,
2013-09-30 19:28:00,71.0,42.0,29.84,South,180,0.0,0.0,35,0.00,,CLR,0.00,VWS V14.01,2013-10-01 00:28:00,
2013-09-30 19:29:00,70.8,41.8,29.85,South,180,0.0,0.0,35,0.00,,CLR,0.00,VWS V14.01,2013-10-01 00:29:00,
2013-09-30 19:32:00,70.7,41.7,29.85,South,180,0.0,0.0,35,0.00,,CLR,0.00,VWS V14.01,2013-10-01 00:32:00,
2013-09-30 19:33:00,70.7,41.7,29.85,South,180,0.0,0.0,35,0.00,,CLR,0.00,VWS V14.01,2013-10-01 00:33:00,
2013-09-30 19:37:00,70.5,43.0,29.84,South,180,0.0,0.0,37,0.00,,CLR,0.00,VWS V14.01,2013-10-01 00:37:00,
2013-09-30 19:38:00,70.5,43.0,29.84,South,180,0.0,0.0,37,0.00,,CLR,0.00,VWS V14.01,2013-10-01 00:38:00,
2013-09-30 19:39:00,70.3,42.8,29.84,South,180,0.0,0.0,37,0.00,,CLR,0.00,VWS V14.01,2013-10-01 00:39:00,
2013-09-30 19:43:00,70.1,42.7,29.84,South,180,3.4,3.4,37,0.00,,CLR,0.00,VWS V14.01,2013-10-01 00:43:00,
2013-09-30 19:44:00,70.1,43.3,29.84,South,180,0.0,3.4,38,0.00,,CLR,0.00,VWS V14.01,2013-10-01 00:44:00,
2013-09-30 19:46:00,69.9,43.2,29.84,South,180,0.0,2.6,38,0.00,,CLR,0.00,VWS V14.01,2013-10-01 00:46:00,
2013-09-30 19:49:00,69.9,43.2,29.84,South,180,0.0,0.0,38,0.00,,CLR,0.00,VWS V14.01,2013-10-01 00:49:00,
2013-09-30 19:50:00,69.9,43.2,29.84,South,180,0.0,0.0,38,0.00,,CLR,0.00,VWS V14.01,2013-10-01 00:50:00,
2013-09-30 19:51:00,69.9,43.8,29.84,South,180,2.2,2.2,39,0.00,,CLR,0.00,VWS V14.01,2013-10-01 00:51:00,
2013-09-30 19:52:00,69.6,43.6,29.84,South,180,0.0,2.2,39,0.00,,CLR,0.00,VWS V14.01,2013-10-01 00:52:00,
2013-09-30 19:56:00,69.4,43.4,29.84,South,180,0.0,0.0,39,0.00,,CLR,0.00,VWS V14.01,2013-10-01 00:56:00,
2013-09-30 19:57:00,69.4,43.4,29.84,South,180,2.6,2.6,39,0.00,,CLR,0.00,VWS V14.01,2013-10-01 00:57:00,
2013-09-30 19:59:00,69.2,43.2,29.84,South,180,0.0,0.0,39,0.00,,CLR,0.00,VWS V14.01,2013-10-01 00:59:00,
2013-09-30 20:00:00,69.0,43.0,29.84,South,180,0.0,0.0,39,0.00,,CLR,0.00,VWS V14.01,2013-10-01 01:00:00,
2013-09-30 20:02:00,68.9,43.0,29.84,South,180,0.0,0.0,39,0.00,,CLR,0.00,VWS V14.01,2013-10-01 01:02:00,
2013-09-30 20:06:00,68.9,43.6,29.85,South,180,0.0,0.0,40,0.00,,CLR,0.00,VWS V14.01,2013-10-01 01:06:00,
2013-09-30 20:07:00,68.9,43.6,29.84,SSE,158,1.6,1.6,40,0.00,,CLR,0.00,VWS V14.01,2013-10-01 01:07:00,
2013-09-30 20:10:00,68.9,43.6,29.84,South,180,0.0,0.0,40,0.00,,CLR,0.00,VWS V14.01,2013-10-01 01:10:00,
2013-09-30 20:11:00,68.9,43.6,29.84,South,180,0.0,0.0,40,0.00,,CLR,0.00,VWS V14.01,2013-10-01 01:11:00,
2013-09-30 20:12:00,68.7,44.1,29.84,South,180,0.0,0.0,41,0.00,,CLR,0.00,VWS V14.01,2013-10-01 01:12:00,
2013-09-30 20:13:00,68.7,44.1,29.84,South,180,0.0,0.0,41,0.00,,CLR,0.00,VWS V14.01,2013-10-01 01:13:00,
2013-09-30 20:16:00,68.7,44.7,29.84,South,180,0.0,0.0,42,0.00,,CLR,0.00,VWS V14.01,2013-10-01 01:16:00,
2013-09-30 20:17:00,68.5,44.5,29.84,South,180,0.0,0.0,42,0.00,,CLR,0.00,VWS V14.01,2013-10-01 01:17:00,
2013-09-30 20:19:00,68.3,44.3,29.85,South,180,0.0,0.0,42,0.00,,CLR,0.00,VWS V14.01,2013-10-01 01:19:00,
2013-09-30 20:23:00,68.1,44.2,29.85,SSE,158,0.0,0.0,42,0.00,,CLR,0.00,VWS V14.01,2013-10-01 01:23:00,
2013-09-30 20:24:00,68.1,44.2,29.85,SSE,158,0.0,0.0,42,0.00,,CLR,0.00,VWS V14.01,2013-10-01 01:24:00,
2013-09-30 20:25:00,68.1,44.2,29.85,SSE,158,0.0,0.0,42,0.00,,CLR,0.00,VWS V14.01,2013-10-01 01:25:00,
2013-09-30 20:27:00,68.1,44.8,29.85,South,180,0.0,0.0,43,0.00,,CLR,0.00,VWS V14.01,2013-10-01 01:27:00,
2013-09-30 20:29:00,68.1,44.8,29.85,South,180,0.0,0.0,43,0.00,,CLR,0.00,VWS V14.01,2013-10-01 01:29:00,
2013-09-30 20:31:00,68.1,44.8,29.85,South,180,0.0,0.0,43,0.00,,CLR,0.00,VWS V14.01,2013-10-01 01:31:00,
2013-09-30 20:32:00,68.0,44.7,29.85,SSW,202,3.0,3.0,43,0.00,,CLR,0.00,VWS V14.01,2013-10-01 01:32:00,
2013-09-30 20:35:00,67.6,44.3,29.85,South,180,0.0,0.0,43,0.00,,CLR,0.00,VWS V14.01,2013-10-01 01:35:00,
2013-09-30 20:36:00,67.8,44.5,29.85,South,180,0.0,0.0,43,0.00,,CLR,0.00,VWS V14.01,2013-10-01 01:36:00,
2013-09-30 20:37:00,67.8,44.5,29.85,South,180,0.0,0.0,43,0.00,,CLR,0.00,VWS V14.01,2013-10-01 01:37:00,
2013-09-30 20:39:00,67.6,44.9,29.85,South,180,0.0,0.0,44,0.00,,CLR,0.00,VWS V14.01,2013-10-01 01:39:00,
2013-09-30 20:42:00,67.6,44.9,29.85,South,180,0.0,0.0,44,0.00,,CLR,0.00,VWS V14.01,2013-10-01 01:42:00,
2013-09-30 20:43:00,67.6,44.9,29.85,South,180,0.0,0.0,44,0.00,,CLR,0.00,VWS V14.01,2013-10-01 01:43:00,
2013-09-30 20:44:00,67.6,44.9,29.85,South,180,0.0,0.0,44,0.00,,CLR,0.00,VWS V14.01,2013-10-01 01:44:00,
2013-09-30 20:46:00,67.6,44.9,29.85,South,180,0.0,3.0,44,0.00,,CLR,0.00,VWS V14.01,2013-10-01 01:46:00,
2013-09-30 20:48:00,67.4,44.8,29.85,South,180,0.0,0.0,44,0.00,,CLR,0.00,VWS V14.01,2013-10-01 01:48:00,
2013-09-30 20:49:00,67.4,44.8,29.85,South,180,0.0,0.0,44,0.00,,CLR,0.00,VWS V14.01,2013-10-01 01:49:00,
2013-09-30 20:51:00,67.4,45.3,29.85,South,180,7.0,7.0,45,0.00,,CLR,0.00,VWS V14.01,2013-10-01 01:51:00,
2013-09-30 20:52:00,67.4,45.3,29.85,South,180,0.0,7.0,45,0.00,,CLR,0.00,VWS V14.01,2013-10-01 01:52:00,
2013-09-30 20:53:00,67.4,45.3,29.85,South,180,0.0,0.0,45,0.00,,CLR,0.00,VWS V14.01,2013-10-01 01:53:00,
2013-09-30 20:55:00,67.4,45.3,29.85,SSW,202,0.0,1.2,45,0.00,,CLR,0.00,VWS V14.01,2013-10-01 01:55:00,
2013-09-30 20:56:00,67.4,45.3,29.85,SSW,202,0.0,0.0,45,0.00,,CLR,0.00,VWS V14.01,2013-10-01 01:56:00,
2013-09-30 20:59:00,67.4,45.3,29.85,South,180,0.0,7.6,45,0.00,,CLR,0.00,VWS V14.01,2013-10-01 01:59:00,
2013-09-30 21:00:00,67.4,45.3,29.85,South,180,0.0,0.0,45,0.00,,CLR,0.00,VWS V14.01,2013-10-01 02:00:00,
2013-09-30 21:01:00,67.2,45.2,29.85,South,180,3.4,5.8,45,0.00,,CLR,0.00,VWS V14.01,2013-10-01 02:01:00,
2013-09-30 21:03:00,67.2,45.2,29.85,SSE,158,0.0,3.4,45,0.00,,CLR,0.00,VWS V14.01,2013-10-01 02:03:00,
2013-09-30 21:05:00,67.2,45.2,29.85,South,180,0.0,0.0,45,0.00,,CLR,0.00,VWS V14.01,2013-10-01 02:05:00,
2013-09-30 21:06:00,67.2,45.2,29.85,South,180,2.2,2.2,45,0.00,,CLR,0.00,VWS V14.01,2013-10-01 02:06:00,
2013-09-30 21:07:00,67.2,45.2,29.85,South,180,1.6,2.2,45,0.00,,CLR,0.00,VWS V14.01,2013-10-01 02:07:00,
2013-09-30 21:11:00,67.1,45.7,29.85,South,180,0.0,0.0,46,0.00,,CLR,0.00,VWS V14.01,2013-10-01 02:11:00,
2013-09-30 21:12:00,67.1,45.7,29.85,South,180,0.0,0.0,46,0.00,,CLR,0.00,VWS V14.01,2013-10-01 02:12:00,
2013-09-30 21:13:00,67.1,45.7,29.85,SSE,158,4.4,4.4,46,0.00,,CLR,0.00,VWS V14.01,2013-10-01 02:13:00,
2013-09-30 21:15:00,66.9,46.0,29.85,SSW,202,0.0,4.4,47,0.00,,CLR,0.00,VWS V14.01,2013-10-01 02:15:00,
2013-09-30 21:17:00,66.9,45.5,29.84,South,180,0.0,0.0,46,0.00,,CLR,0.00,VWS V14.01,2013-10-01 02:17:00,
2013-09-30 21:20:00,66.9,46.6,29.84,South,180,0.0,0.0,48,0.00,,CLR,0.00,VWS V14.01,2013-10-01 02:20:00,
2013-09-30 21:22:00,66.9,46.6,29.84,SSE,158,0.0,0.0,48,0.00,,CLR,0.00,VWS V14.01,2013-10-01 02:22:00,
2013-09-30 21:23:00,66.9,46.6,29.85,South,180,0.0,0.0,48,0.00,,CLR,0.00,VWS V14.01,2013-10-01 02:23:00,
2013-09-30 21:25:00,66.9,46.6,29.84,South,180,0.0,0.0,48,0.00,,CLR,0.00,VWS V14.01,2013-10-01 02:25:00,
2013-09-30 21:26:00,66.9,46.6,29.84,South,180,0.0,0.0,48,0.00,,CLR,0.00,VWS V14.01,2013-10-01 02:26:00,
2013-09-30 21:27:00,66.7,46.4,29.84,South,180,0.0,0.0,48,0.00,,CLR,0.00,VWS V14.01,2013-10-01 02:27:00,
2013-09-30 21:30:00,66.7,46.4,29.85,SSE,158,3.4,3.4,48,0.00,,CLR,0.00,VWS V14.01,2013-10-01 02:30:00,
2013-09-30 21:31:00,66.7,47.0,29.84,SSW,202,0.0,3.4,49,0.00,,CLR,0.00,VWS V14.01,2013-10-01 02:31:00,
2013-09-30 21:32:00,66.7,47.0,29.84,South,180,8.0,8.0,49,0.00,,CLR,0.00,VWS V14.01,2013-10-01 02:32:00,
2013-09-30 21:35:00,66.5,46.8,29.84,South,180,0.0,0.0,49,0.00,,CLR,0.00,VWS V14.01,2013-10-01 02:35:00,
2013-09-30 21:36:00,66.5,46.8,29.84,South,180,2.2,2.2,49,0.00,,CLR,0.00,VWS V14.01,2013-10-01 02:36:00,
2013-09-30 21:39:00,66.7,47.5,29.84,South,180,6.2,6.2,50,0.00,,CLR,0.00,VWS V14.01,2013-10-01 02:39:00,
2013-09-30 21:40:00,66.7,47.5,29.84,South,180,0.0,6.2,50,0.00,,CLR,0.00,VWS V14.01,2013-10-01 02:40:00,
2013-09-30 21:41:00,66.7,47.5,29.84,SSW,202,6.2,6.2,50,0.00,,CLR,0.00,VWS V14.01,2013-10-01 02:41:00,
2013-09-30 21:45:00,66.5,47.3,29.84,SSE,158,0.0,0.0,50,0.00,,CLR,0.00,VWS V14.01,2013-10-01 02:45:00,
2013-09-30 21:46:00,66.7,47.5,29.84,SSE,158,0.0,0.0,50,0.00,,CLR,0.00,VWS V14.01,2013-10-01 02:46:00,
2013-09-30 21:49:00,66.7,48.0,29.84,SSE,158,0.0,3.0,51,0.00,,CLR,0.00,VWS V14.01,2013-10-01 02:49:00,
2013-09-30 21:50:00,66.5,47.8,29.84,South,180,0.0,0.0,51,0.00,,CLR,0.00,VWS V14.01,2013-10-01 02:50:00,
2013-09-30 21:51:00,66.5,47.8,29.84,South,180,0.0,0.0,51,0.00,,CLR,0.00,VWS V14.01,2013-10-01 02:51:00,
2013-09-30 21:53:00,66.5,47.8,29.84,South,180,0.0,2.2,51,0.00,,CLR,0.00,VWS V14.01,2013-10-01 02:53:00,
2013-09-30 21:54:00,66.5,47.8,29.84,South,180,0.0,0.0,51,0.00,,CLR,0.04,VWS V14.01,2013-10-01 02:54:00,
2013-09-30 21:57:00,66.3,47.7,29.84,South,180,0.0,0.0,51,0.00,,CLR,0.00,VWS V14.01,2013-10-01 02:57:00,
2013-09-30 21:58:00,66.3,47.7,29.84,South,180,0.0,0.0,51,0.00,,CLR,0.00,VWS V14.01,2013-10-01 02:58:00,
2013-09-30 22:01:00,66.2,48.1,29.84,South,180,0.0,0.0,52,0.00,,CLR,0.00,VWS V14.01,2013-10-01 03:01:00,
2013-09-30 22:02:00,66.3,48.2,29.84,South,180,0.0,0.0,52,0.00,,CLR,0.00,VWS V14.01,2013-10-01 03:02:00,
2013-09-30 22:03:00,66.3,48.2,29.84,SSW,202,0.0,0.0,52,0.00,,CLR,0.00,VWS V14.01,2013-10-01 03:03:00,
2013-09-30 22:05:00,66.2,48.1,29.84,South,180,4.0,4.0,52,0.00,,CLR,0.00,VWS V14.01,2013-10-01 03:05:00,
2013-09-30 22:07:00,66.0,47.9,29.84,South,180,8.4,8.4,52,0.00,,CLR,0.00,VWS V14.01,2013-10-01 03:07:00,
2013-09-30 22:08:00,66.0,47.9,29.84,South,180,0.0,0.0,52,0.00,,CLR,0.00,VWS V14.01,2013-10-01 03:08:00,
2013-09-30 22:09:00,66.0,47.9,29.85,SSE,158,0.0,0.0,52,0.00,,CLR,0.00,VWS V14.01,2013-10-01 03:09:00,
2013-09-30 22:12:00,65.8,48.2,29.85,SSE,158,0.0,0.0,53,0.00,,CLR,0.00,VWS V14.01,2013-10-01 03:12:00,
2013-09-30 22:13:00,65.8,48.2,29.85,South,180,0.8,0.8,53,0.00,,CLR,0.00,VWS V14.01,2013-10-01 03:13:00,
2013-09-30 22:18:00,65.6,48.0,29.85,SSW,202,11.0,11.0,53,0.00,,CLR,0.00,VWS V14.01,2013-10-01 03:18:00,
2013-09-30 22:19:00,65.6,48.5,29.85,SSE,158,6.2,11.0,54,0.00,,CLR,0.00,VWS V14.01,2013-10-01 03:19:00,
2013-09-30 22:20:00,65.6,48.5,29.85,South,180,0.0,0.0,54,0.00,,CLR,0.00,VWS V14.01,2013-10-01 03:20:00,
2013-09-30 22:23:00,65.8,48.7,29.85,SSE,158,8.4,8.4,54,0.00,,CLR,0.00,VWS V14.01,2013-10-01 03:23:00,
2013-09-30 22:26:00,65.8,48.7,29.85,SSW,202,0.0,0.0,54,0.00,,CLR,0.00,VWS V14.01,2013-10-01 03:26:00,
2013-09-30 22:27:00,65.8,49.2,29.85,South,180,0.8,1.6,55,0.00,,CLR,0.00,VWS V14.01,2013-10-01 03:27:00,
2013-09-30 22:29:00,65.8,49.2,29.85,South,180,2.2,2.2,55,0.00,,CLR,0.00,VWS V14.01,2013-10-01 03:29:00,
2013-09-30 22:30:00,65.8,49.2,29.85,South,180,2.2,2.2,55,0.00,,CLR,0.00,VWS V14.01,2013-10-01 03:30:00,
2013-09-30 22:33:00,65.8,49.2,29.85,SE,135,4.0,4.0,55,0.00,,CLR,0.00,VWS V14.01,2013-10-01 03:33:00,
2013-09-30 22:35:00,65.8,49.2,29.85,South,180,4.8,4.8,55,0.00,,CLR,0.00,VWS V14.01,2013-10-01 03:35:00,
2013-09-30 22:36:00,65.8,49.2,29.85,South,180,0.0,0.0,55,0.00,,CLR,0.00,VWS V14.01,2013-10-01 03:36:00,
2013-09-30 22:37:00,65.8,49.2,29.85,South,180,0.0,0.0,55,0.00,,CLR,0.00,VWS V14.01,2013-10-01 03:37:00,
2013-09-30 22:41:00,65.8,49.7,29.85,South,180,0.0,0.0,56,0.00,,CLR,0.00,VWS V14.01,2013-10-01 03:41:00,
2013-09-30 22:42:00,65.8,49.7,29.85,SE,135,2.2,2.2,56,0.00,,CLR,0.00,VWS V14.01,2013-10-01 03:42:00,
2013-09-30 22:43:00,65.8,49.7,29.85,South,180,0.0,4.4,56,0.00,,CLR,0.00,VWS V14.01,2013-10-01 03:43:00,
2013-09-30 22:45:00,65.8,49.7,29.85,South,180,0.0,0.0,56,0.00,,CLR,0.00,VWS V14.01,2013-10-01 03:45:00,
2013-09-30 22:46:00,65.8,49.7,29.85,South,180,0.0,0.0,56,0.00,,CLR,0.00,VWS V14.01,2013-10-01 03:46:00,
2013-09-30 22:49:00,65.6,49.5,29.85,SSE,158,2.6,3.4,56,0.00,,CLR,0.00,VWS V14.01,2013-10-01 03:49:00,
2013-09-30 22:51:00,65.6,49.5,29.85,South,180,0.0,0.0,56,0.00,,CLR,0.00,VWS V14.01,2013-10-01 03:51:00,
2013-09-30 22:53:00,65.4,49.3,29.85,South,180,0.0,0.0,56,0.00,,CLR,0.00,VWS V14.01,2013-10-01 03:53:00,
2013-09-30 22:57:00,65.3,49.7,29.86,South,180,0.0,0.0,57,0.00,,CLR,0.00,VWS V14.01,2013-10-01 03:57:00,
2013-09-30 22:58:00,65.3,49.7,29.86,South,180,0.0,0.0,57,0.00,,CLR,0.00,VWS V14.01,2013-10-01 03:58:00,
2013-09-30 22:59:00,65.3,49.7,29.86,North,0,0.0,0.0,57,0.00,,CLR,0.00,VWS V14.01,2013-10-01 03:59:00,
2013-09-30 23:00:00,65.3,49.7,29.86,North,0,0.0,0.0,57,0.00,,CLR,0.00,VWS V14.01,2013-10-01 04:00:00,
2013-09-30 23:01:00,65.3,49.7,29.86,SW,225,0.0,0.0,57,0.00,,CLR,0.00,VWS V14.01,2013-10-01 04:01:00,
2013-09-30 23:02:00,65.1,49.5,29.86,SSW,202,0.0,0.0,57,0.00,,CLR,0.00,VWS V14.01,2013-10-01 04:02:00,
2013-09-30 23:03:00,65.3,50.2,29.86,South,180,9.8,9.8,58,0.00,,CLR,0.00,VWS V14.01,2013-10-01 04:03:00,
2013-09-30 23:05:00,65.3,50.2,29.86,North,0,0.0,0.0,58,0.00,,CLR,0.00,VWS V14.01,2013-10-01 04:05:00,
2013-09-30 23:07:00,65.3,50.2,29.86,SSE,158,0.0,0.0,58,0.00,,CLR,0.00,VWS V14.01,2013-10-01 04:07:00,
2013-09-30 23:09:00,65.1,50.0,29.86,SSE,158,0.0,0.0,58,0.00,,CLR,0.00,VWS V14.01,2013-10-01 04:09:00,
2013-09-30 23:12:00,65.1,50.4,29.86,South,180,0.0,2.2,59,0.00,,CLR,0.00,VWS V14.01,2013-10-01 04:12:00,
2013-09-30 23:13:00,65.1,50.9,29.86,SSE,158,2.6,2.6,60,0.00,,CLR,0.00,VWS V14.01,2013-10-01 04:13:00,
2013-09-30 23:14:00,65.1,50.9,29.86,South,180,3.4,3.4,60,0.00,,CLR,0.00,VWS V14.01,2013-10-01 04:14:00,
2013-09-30 23:17:00,65.1,50.9,29.86,SSE,158,0.0,7.0,60,0.00,,CLR,0.00,VWS V14.01,2013-10-01 04:17:00,
2013-09-30 23:19:00,65.1,51.3,29.85,SSE,158,0.0,2.6,61,0.00,,CLR,0.00,VWS V14.01,2013-10-01 04:19:00,
2013-09-30 23:20:00,65.1,51.3,29.86,SSE,158,0.0,0.0,61,0.00,,CLR,0.00,VWS V14.01,2013-10-01 04:20:00,
2013-09-30 23:25:00,65.1,51.3,29.85,SE,135,5.8,5.8,61,0.00,,CLR,0.00,VWS V14.01,2013-10-01 04:25:00,
2013-09-30 23:26:00,65.1,51.3,29.85,South,180,1.6,5.8,61,0.00,,CLR,0.00,VWS V14.01,2013-10-01 04:26:00,
2013-09-30 23:27:00,65.1,51.3,29.85,South,180,0.0,0.0,61,0.00,,CLR,0.00,VWS V14.01,2013-10-01 04:27:00,
2013-09-30 23:29:00,64.9,51.2,29.86,South,180,0.0,0.0,61,0.00,,CLR,0.00,VWS V14.01,2013-10-01 04:29:00,
2013-09-30 23:31:00,64.9,51.2,29.86,SW,225,0.0,4.8,61,0.00,,CLR,0.00,VWS V14.01,2013-10-01 04:31:00,
2013-09-30 23:32:00,64.9,51.6,29.86,SW,225,0.0,0.0,62,0.00,,CLR,0.00,VWS V14.01,2013-10-01 04:32:00,
2013-09-30 23:33:00,64.7,51.4,29.86,SSE,158,2.6,2.6,62,0.00,,CLR,0.00,VWS V14.01,2013-10-01 04:33:00,
2013-09-30 23:35:00,64.9,51.6,29.86,South,180,0.0,0.0,62,0.00,,CLR,0.00,VWS V14.01,2013-10-01 04:35:00,
2013-09-30 23:37:00,64.9,51.6,29.86,North,0,0.0,0.0,62,0.00,,CLR,0.00,VWS V14.01,2013-10-01 04:37:00,
2013-09-30 23:41:00,64.7,51.4,29.86,SSE,158,8.4,8.4,62,0.00,,CLR,0.00,VWS V14.01,2013-10-01 04:41:00,
2013-09-30 23:42:00,64.7,51.4,29.86,South,180,0.0,8.4,62,0.00,,CLR,0.00,VWS V14.01,2013-10-01 04:42:00,
2013-09-30 23:44:00,64.7,51.4,29.86,South,180,4.4,4.4,62,0.00,,CLR,0.00,VWS V14.01,2013-10-01 04:44:00,
2013-09-30 23:45:00,64.5,51.2,29.86,South,180,0.0,4.4,62,0.00,,CLR,0.00,VWS V14.01,2013-10-01 04:45:00,
2013-09-30 23:47:00,64.5,51.6,29.86,South,180,4.8,4.8,63,0.00,,CLR,0.00,VWS V14.01,2013-10-01 04:47:00,
2013-09-30 23:50:00,64.5,51.6,29.86,South,180,0.0,0.0,63,0.00,,CLR,0.00,VWS V14.01,2013-10-01 04:50:00,
2013-09-30 23:51:00,64.5,51.6,29.86,SSE,158,0.0,0.0,63,0.00,,CLR,0.00,VWS V14.01,2013-10-01 04:51:00,
2013-09-30 23:52:00,64.5,51.6,29.86,SSE,158,0.0,0.0,63,0.00,,CLR,0.00,VWS V14.01,2013-10-01 04:52:00,
2013-09-30 23:53:00,64.4,51.5,29.87,South,180,6.6,6.6,63,0.00,,CLR,0.00,VWS V14.01,2013-10-01 04:53:00,
2013-09-30 23:55:00,64.2,51.8,29.87,SW,225,0.0,0.0,64,0.00,,CLR,0.00,VWS V14.01,2013-10-01 04:55:00,
2013-09-30 23:57:00,64.2,51.8,29.87,SSE,158,4.0,4.0,64,0.00,,CLR,0.00,VWS V14.01,2013-10-01 04:57:00,
2013-09-30 23:59:00,64.0,51.6,29.87,South,180,2.6,4.0,64,0.00,,CLR,0.00,VWS V14.01,2013-10-01 04:59:00,